Wetterdaten: Donnerstag, 17.09.2015
Datum Zeit Temp. Aussen Temp. o. S. +5cm Feuchte Auss BlattFeu 1 Luftdruck Regen Sonnenschein Regendauer Solar Windben Empfang
17.09.2015 00:00 15,4 C 16,1 C 13,9 C 87 % 0 lf 992,5 hPa 0,0 l/m 0 min 0 min 0 W/m 14,6 km/h (3 Bft) 95,74 %
17.09.2015 00:02 15,4 C 16,1 C 13,9 C 87 % 0 lf 992,5 hPa 0,0 l/m 0 min 0 min 0 W/m 23,0 km/h (4 Bft) 94,59 %
17.09.2015 00:05 15,5 C 16,1 C 13,3 C 87 % 0 lf 992,4 hPa 0,0 l/m 0 min 0 min 0 W/m 16,7 km/h (3 Bft) 94,59 %
17.09.2015 00:08 15,5 C 16,1 C 13,3 C 87 % 0 lf 992,3 hPa 0,0 l/m 0 min 0 min 0 W/m 27,2 km/h (4 Bft) 95,71 %
17.09.2015 00:10 15,5 C 16,1 C 13,3 C 86 % 0 lf 992,3 hPa 0,0 l/m 0 min 0 min 0 W/m 23,0 km/h (4 Bft) 97,87 %
17.09.2015 00:12 15,5 C 16,1 C 13,3 C 86 % 0 lf 992,2 hPa 0,0 l/m 0 min 0 min 0 W/m 16,7 km/h (3 Bft) 97,83 %
17.09.2015 00:14 15,6 C 16,1 C 13,3 C 86 % 0 lf 992,2 hPa 0,0 l/m 0 min 0 min 0 W/m 16,7 km/h (3 Bft) 95,74 %
17.09.2015 00:16 15,6 C 15,6 C 13,3 C 86 % 0 lf 992,3 hPa 0,0 l/m 0 min 0 min 0 W/m 14,6 km/h (3 Bft) 97,87 %
17.09.2015 00:18 15,6 C 15,6 C 13,3 C 86 % 0 lf 992,3 hPa 0,0 l/m 0 min 0 min 0 W/m 14,6 km/h (3 Bft) 97,87 %
17.09.2015 00:20 15,6 C 15,6 C 13,3 C 86 % 0 lf 992,2 hPa 0,0 l/m 0 min 0 min 0 W/m 14,6 km/h (3 Bft) 100,00 %
17.09.2015 00:22 15,6 C 15,6 C 13,3 C 86 % 0 lf 992,4 hPa 0,0 l/m 0 min 0 min 0 W/m 14,6 km/h (3 Bft) 100,00 %
17.09.2015 00:24 15,6 C 15,6 C 13,3 C 85 % 0 lf 992,4 hPa 0,0 l/m 0 min 0 min 0 W/m 16,7 km/h (3 Bft) 100,00 %
17.09.2015 00:26 15,6 C 15,6 C 13,3 C 85 % 0 lf 992,5 hPa 0,0 l/m 0 min 0 min 0 W/m 18,8 km/h (3 Bft) 100,00 %
17.09.2015 00:28 15,6 C 16,1 C 13,3 C 85 % 0 lf 992,5 hPa 0,0 l/m 0 min 0 min 0 W/m 25,1 km/h (4 Bft) 100,00 %
17.09.2015 00:30 15,6 C 16,1 C 13,3 C 85 % 0 lf 992,4 hPa 0,0 l/m 0 min 0 min 0 W/m 18,8 km/h (3 Bft) 97,87 %
17.09.2015 00:32 15,6 C 16,1 C 13,3 C 85 % 0 lf 992,4 hPa 0,0 l/m 0 min 0 min 0 W/m 23,0 km/h (4 Bft) 100,00 %
17.09.2015 00:34 15,6 C 16,1 C 13,3 C 85 % 0 lf 992,5 hPa 0,0 l/m 0 min 0 min 0 W/m 31,4 km/h (5 Bft) 97,87 %
17.09.2015 00:36 15,6 C 16,1 C 13,9 C 85 % 0 lf 992,6 hPa 0,0 l/m 0 min 0 min 0 W/m 23,0 km/h (4 Bft) 100,00 %
17.09.2015 00:38 15,7 C 16,1 C 13,9 C 85 % 0 lf 992,5 hPa 0,0 l/m 0 min 0 min 0 W/m 20,9 km/h (4 Bft) 100,00 %
17.09.2015 00:40 15,7 C 16,1 C 13,9 C 84 % 0 lf 992,5 hPa 0,0 l/m 0 min 0 min 0 W/m 23,0 km/h (4 Bft) 100,00 %
17.09.2015 00:42 15,7 C 16,1 C 13,9 C 84 % 0 lf 992,5 hPa 0,0 l/m 0 min 0 min 0 W/m 23,0 km/h (4 Bft) 93,48 %
17.09.2015 00:44 15,7 C 16,1 C 13,9 C 84 % 0 lf 992,5 hPa 0,0 l/m 0 min 0 min 0 W/m 27,2 km/h (4 Bft) 93,62 %
17.09.2015 00:46 15,8 C 16,1 C 13,9 C 84 % 0 lf 992,5 hPa 0,0 l/m 0 min 0 min 0 W/m 16,7 km/h (3 Bft) 100,00 %
17.09.2015 00:48 15,8 C 16,1 C 13,9 C 84 % 0 lf 992,5 hPa 0,0 l/m 0 min 0 min 0 W/m 20,9 km/h (4 Bft) 100,00 %
17.09.2015 00:50 15,8 C 16,1 C 13,9 C 84 % 0 lf 992,5 hPa 0,0 l/m 0 min 0 min 0 W/m 41,8 km/h (6 Bft) 100,00 %
17.09.2015 00:52 15,8 C 16,1 C 13,9 C 84 % 0 lf 992,4 hPa 0,0 l/m 0 min 0 min 0 W/m 16,7 km/h (3 Bft) 95,74 %
17.09.2015 00:54 15,8 C 16,1 C 13,9 C 84 % 0 lf 992,5 hPa 0,0 l/m 0 min 0 min 0 W/m 23,0 km/h (4 Bft) 100,00 %
17.09.2015 00:56 15,8 C 16,1 C 13,9 C 84 % 0 lf 992,6 hPa 0,0 l/m 0 min 0 min 0 W/m 27,2 km/h (4 Bft) 100,00 %
17.09.2015 00:58 15,8 C 16,1 C 13,9 C 83 % 0 lf 992,6 hPa 0,0 l/m 0 min 0 min 0 W/m 16,7 km/h (3 Bft) 100,00 %
17.09.2015 01:00 15,9 C 16,1 C 13,9 C 83 % 0 lf 992,8 hPa 0,0 l/m 0 min 0 min 0 W/m 23,0 km/h (4 Bft) 97,87 %
17.09.2015 01:02 15,9 C 16,1 C 13,9 C 83 % 0 lf 992,8 hPa 0,0 l/m 0 min 0 min 0 W/m 25,1 km/h (4 Bft) 97,87 %
17.09.2015 01:04 15,9 C 16,1 C 13,9 C 83 % 0 lf 992,9 hPa 0,0 l/m 0 min 0 min 0 W/m 18,8 km/h (3 Bft) 100,00 %
17.09.2015 01:06 15,9 C 16,1 C 13,9 C 83 % 0 lf 992,9 hPa 0,0 l/m 0 min 0 min 0 W/m 18,8 km/h (3 Bft) 97,83 %
17.09.2015 01:08 15,9 C 16,1 C 13,9 C 83 % 0 lf 992,9 hPa 0,0 l/m 0 min 0 min 0 W/m 16,7 km/h (3 Bft) 91,49 %
17.09.2015 01:10 15,9 C 16,1 C 13,9 C 83 % 0 lf 993,0 hPa 0,0 l/m 0 min 0 min 0 W/m 23,0 km/h (4 Bft) 97,87 %
17.09.2015 01:12 15,9 C 16,1 C 13,9 C 83 % 0 lf 993,1 hPa 0,0 l/m 0 min 0 min 0 W/m 20,9 km/h (4 Bft) 100,00 %
17.09.2015 01:14 15,9 C 16,1 C 13,9 C 83 % 0 lf 993,0 hPa 0,0 l/m 0 min 0 min 0 W/m 25,1 km/h (4 Bft) 100,00 %
17.09.2015 01:16 15,9 C 16,1 C 13,9 C 83 % 0 lf 993,0 hPa 0,0 l/m 0 min 0 min 0 W/m 20,9 km/h (4 Bft) 97,87 %
17.09.2015 01:18 15,9 C 16,1 C 13,9 C 83 % 0 lf 993,0 hPa 0,0 l/m 0 min 0 min 0 W/m 25,1 km/h (4 Bft) 100,00 %
17.09.2015 01:20 16,0 C 16,1 C 13,9 C 83 % 0 lf 993,1 hPa 0,0 l/m 0 min 0 min 0 W/m 27,2 km/h (4 Bft) 100,00 %
17.09.2015 01:22 16,0 C 16,1 C 13,9 C 83 % 0 lf 993,1 hPa 0,0 l/m 0 min 0 min 0 W/m 23,0 km/h (4 Bft) 95,74 %
17.09.2015 01:24 16,0 C 16,1 C 13,9 C 83 % 0 lf 993,0 hPa 0,0 l/m 0 min 0 min 0 W/m 31,4 km/h (5 Bft) 95,74 %
17.09.2015 01:26 16,0 C 16,1 C 14,4 C 83 % 0 lf 993,1 hPa 0,0 l/m 0 min 0 min 0 W/m 33,5 km/h (5 Bft) 95,74 %
17.09.2015 01:28 16,0 C 16,1 C 14,4 C 83 % 0 lf 992,9 hPa 0,0 l/m 0 min 0 min 0 W/m 31,4 km/h (5 Bft) 95,74 %
17.09.2015 01:30 16,0 C 16,1 C 14,4 C 83 % 0 lf 993,0 hPa 0,0 l/m 0 min 0 min 0 W/m 27,2 km/h (4 Bft) 95,65 %
17.09.2015 01:32 16,1 C 16,1 C 14,4 C 83 % 0 lf 992,9 hPa 0,0 l/m 0 min 0 min 0 W/m 16,7 km/h (3 Bft) 97,87 %
17.09.2015 01:34 16,1 C 16,1 C 14,4 C 83 % 0 lf 992,9 hPa 0,0 l/m 0 min 0 min 0 W/m 16,7 km/h (3 Bft) 95,74 %
17.09.2015 01:36 16,1 C 16,1 C 14,4 C 83 % 0 lf 992,9 hPa 0,0 l/m 0 min 0 min 0 W/m 23,0 km/h (4 Bft) 95,74 %
17.09.2015 01:38 16,1 C 16,1 C 14,4 C 83 % 0 lf 992,9 hPa 0,0 l/m 0 min 0 min 0 W/m 23,0 km/h (4 Bft) 95,74 %
17.09.2015 01:40 16,1 C 16,1 C 14,4 C 83 % 0 lf 992,9 hPa 0,0 l/m 0 min 0 min 0 W/m 35,6 km/h (5 Bft) 95,74 %
17.09.2015 01:42 16,1 C 16,1 C 14,4 C 83 % 0 lf 992,9 hPa 0,0 l/m 0 min 0 min 0 W/m 23,0 km/h (4 Bft) 93,48 %
17.09.2015 01:44 16,1 C 16,1 C 14,4 C 83 % 0 lf 992,9 hPa 0,0 l/m 0 min 0 min 0 W/m 33,5 km/h (5 Bft) 95,74 %
17.09.2015 01:46 16,1 C 16,1 C 14,4 C 83 % 0 lf 992,8 hPa 0,0 l/m 0 min 0 min 0 W/m 39,7 km/h (6 Bft) 91,49 %
17.09.2015 01:48 16,1 C 16,1 C 14,4 C 83 % 0 lf 992,9 hPa 0,0 l/m 0 min 0 min 0 W/m 23,0 km/h (4 Bft) 95,74 %
17.09.2015 01:50 16,1 C 16,1 C 14,4 C 83 % 0 lf 992,9 hPa 0,0 l/m 0 min 0 min 0 W/m 23,0 km/h (4 Bft) 95,74 %
17.09.2015 01:52 16,1 C 16,1 C 14,4 C 83 % 0 lf 993,0 hPa 0,0 l/m 0 min 0 min 0 W/m 33,5 km/h (5 Bft) 95,74 %
17.09.2015 01:54 16,1 C 16,1 C 14,4 C 83 % 0 lf 992,8 hPa 0,0 l/m 0 min 0 min 0 W/m 27,2 km/h (4 Bft) 93,48 %
17.09.2015 01:56 16,2 C 16,7 C 14,4 C 83 % 0 lf 992,8 hPa 0,0 l/m 0 min 0 min 0 W/m 31,4 km/h (5 Bft) 93,62 %
17.09.2015 01:58 16,2 C 16,7 C 15,0 C 83 % 0 lf 992,9 hPa 0,0 l/m 0 min 0 min 0 W/m 33,5 km/h (5 Bft) 91,49 %
17.09.2015 02:00 16,2 C 16,7 C 15,0 C 83 % 0 lf 992,8 hPa 0,0 l/m 0 min 0 min 0 W/m 50,2 km/h (7 Bft) 91,49 %
17.09.2015 02:02 16,2 C 16,7 C 14,4 C 83 % 0 lf 992,7 hPa 0,0 l/m 0 min 0 min 0 W/m 33,5 km/h (5 Bft) 93,62 %
17.09.2015 02:04 16,3 C 16,7 C 14,4 C 82 % 0 lf 992,7 hPa 0,0 l/m 0 min 0 min 0 W/m 33,5 km/h (5 Bft) 89,13 %
17.09.2015 02:06 16,3 C 16,7 C 15,0 C 82 % 0 lf 992,7 hPa 0,0 l/m 0 min 0 min 0 W/m 23,0 km/h (4 Bft) 95,74 %
17.09.2015 02:08 16,3 C 16,7 C 15,0 C 82 % 0 lf 992,8 hPa 0,0 l/m 0 min 0 min 0 W/m 35,6 km/h (5 Bft) 95,74 %
17.09.2015 02:10 16,3 C 16,7 C 15,0 C 82 % 0 lf 992,8 hPa 0,0 l/m 0 min 0 min 0 W/m 35,6 km/h (5 Bft) 97,87 %
17.09.2015 02:12 16,3 C 16,7 C 14,4 C 82 % 0 lf 992,9 hPa 0,0 l/m 0 min 0 min 0 W/m 39,7 km/h (6 Bft) 97,87 %
17.09.2015 02:14 16,3 C 16,7 C 14,4 C 82 % 0 lf 992,9 hPa 0,0 l/m 0 min 0 min 0 W/m 31,4 km/h (5 Bft) 95,74 %
17.09.2015 02:16 16,4 C 16,7 C 15,0 C 82 % 0 lf 992,9 hPa 0,0 l/m 0 min 0 min 0 W/m 23,0 km/h (4 Bft) 95,65 %
17.09.2015 02:18 16,4 C 16,7 C 15,0 C 82 % 0 lf 992,8 hPa 0,0 l/m 0 min 0 min 0 W/m 35,6 km/h (5 Bft) 97,87 %
17.09.2015 02:20 16,4 C 16,7 C 15,0 C 82 % 0 lf 992,9 hPa 0,0 l/m 0 min 0 min 0 W/m 33,5 km/h (5 Bft) 95,74 %
17.09.2015 02:22 16,4 C 16,7 C 15,0 C 82 % 0 lf 992,9 hPa 0,0 l/m 0 min 0 min 0 W/m 29,3 km/h (5 Bft) 97,87 %
17.09.2015 02:24 16,4 C 16,7 C 15,0 C 82 % 0 lf 993,0 hPa 0,0 l/m 0 min 0 min 0 W/m 41,8 km/h (6 Bft) 95,74 %
17.09.2015 02:26 16,4 C 16,7 C 15,0 C 82 % 0 lf 993,0 hPa 0,0 l/m 0 min 0 min 0 W/m 35,6 km/h (5 Bft) 95,74 %
17.09.2015 02:28 16,4 C 16,7 C 15,0 C 82 % 0 lf 993,0 hPa 0,0 l/m 0 min 0 min 0 W/m 31,4 km/h (5 Bft) 97,83 %
17.09.2015 02:30 16,4 C 16,7 C 15,0 C 82 % 0 lf 993,1 hPa 0,0 l/m 0 min 0 min 0 W/m 35,6 km/h (5 Bft) 95,74 %
17.09.2015 02:32 16,4 C 16,7 C 15,0 C 82 % 0 lf 993,2 hPa 0,0 l/m 0 min 0 min 0 W/m 31,4 km/h (5 Bft) 93,62 %
17.09.2015 02:34 16,5 C 16,7 C 15,0 C 82 % 0 lf 993,2 hPa 0,0 l/m 0 min 0 min 0 W/m 25,1 km/h (4 Bft) 97,87 %
17.09.2015 02:36 16,5 C 16,7 C 15,0 C 82 % 0 lf 993,2 hPa 0,0 l/m 0 min 0 min 0 W/m 37,7 km/h (5 Bft) 97,87 %
17.09.2015 02:38 16,5 C 16,7 C 15,0 C 82 % 0 lf 993,2 hPa 0,0 l/m 0 min 0 min 0 W/m 35,6 km/h (5 Bft) 100,00 %
17.09.2015 02:40 16,5 C 16,7 C 15,0 C 82 % 0 lf 993,2 hPa 0,0 l/m 0 min 0 min 0 W/m 33,5 km/h (5 Bft) 100,00 %
17.09.2015 02:42 16,5 C 16,7 C 15,0 C 81 % 0 lf 993,2 hPa 0,0 l/m 0 min 0 min 0 W/m 31,4 km/h (5 Bft) 97,87 %
17.09.2015 02:44 16,5 C 16,7 C 15,0 C 81 % 0 lf 993,3 hPa 0,0 l/m 0 min 0 min 0 W/m 46,0 km/h (6 Bft) 100,00 %
17.09.2015 02:46 16,5 C 16,7 C 15,0 C 82 % 0 lf 993,4 hPa 0,0 l/m 0 min 0 min 0 W/m 31,4 km/h (5 Bft) 100,00 %
17.09.2015 02:48 16,6 C 16,7 C 15,0 C 82 % 0 lf 993,4 hPa 0,0 l/m 0 min 0 min 0 W/m 33,5 km/h (5 Bft) 100,00 %
17.09.2015 02:50 16,6 C 16,7 C 15,0 C 82 % 0 lf 993,4 hPa 0,0 l/m 0 min 0 min 0 W/m 27,2 km/h (4 Bft) 100,00 %
17.09.2015 02:52 16,6 C 16,7 C 15,0 C 82 % 0 lf 993,3 hPa 0,0 l/m 0 min 0 min 0 W/m 31,4 km/h (5 Bft) 100,00 %
17.09.2015 02:54 16,6 C 16,7 C 15,0 C 82 % 0 lf 993,4 hPa 0,0 l/m 0 min 0 min 0 W/m 33,5 km/h (5 Bft) 97,87 %
17.09.2015 02:56 16,5 C 16,7 C 15,0 C 82 % 0 lf 993,4 hPa 0,0 l/m 0 min 0 min 0 W/m 37,7 km/h (5 Bft) 100,00 %
17.09.2015 02:58 16,6 C 16,7 C 15,0 C 82 % 0 lf 993,5 hPa 0,0 l/m 0 min 0 min 0 W/m 27,2 km/h (4 Bft) 100,00 %
17.09.2015 03:00 16,5 C 16,7 C 14,4 C 82 % 0 lf 993,4 hPa 0,0 l/m 0 min 0 min 0 W/m 25,1 km/h (4 Bft) 97,87 %
17.09.2015 03:02 16,5 C 16,1 C 14,4 C 82 % 0 lf 993,2 hPa 0,0 l/m 0 min 0 min 0 W/m 20,9 km/h (4 Bft) 95,74 %
17.09.2015 03:04 16,5 C 16,1 C 14,4 C 82 % 0 lf 993,3 hPa 0,0 l/m 0 min 0 min 0 W/m 20,9 km/h (4 Bft) 97,83 %
17.09.2015 03:06 16,4 C 16,1 C 14,4 C 82 % 0 lf 993,5 hPa 0,0 l/m 0 min 0 min 0 W/m 33,5 km/h (5 Bft) 97,87 %
17.09.2015 03:08 16,4 C 16,1 C 14,4 C 82 % 0 lf 993,3 hPa 0,0 l/m 0 min 0 min 0 W/m 25,1 km/h (4 Bft) 97,87 %
17.09.2015 03:10 16,3 C 15,6 C 13,9 C 82 % 0 lf 993,3 hPa 0,0 l/m 0 min 0 min 0 W/m 25,1 km/h (4 Bft) 93,62 %
17.09.2015 03:12 16,3 C 15,6 C 13,9 C 83 % 0 lf 993,4 hPa 0,0 l/m 0 min 0 min 0 W/m 23,0 km/h (4 Bft) 95,74 %
17.09.2015 03:14 16,2 C 15,6 C 13,9 C 83 % 0 lf 993,5 hPa 0,0 l/m 0 min 0 min 0 W/m 23,0 km/h (4 Bft) 97,83 %
17.09.2015 03:16 16,2 C 15,6 C 13,9 C 83 % 0 lf 993,5 hPa 0,0 l/m 0 min 0 min 0 W/m 25,1 km/h (4 Bft) 97,87 %
17.09.2015 03:18 16,1 C 15,6 C 13,9 C 83 % 0 lf 993,4 hPa 0,0 l/m 0 min 0 min 0 W/m 20,9 km/h (4 Bft) 97,87 %
17.09.2015 03:20 16,1 C 15,6 C 13,9 C 83 % 0 lf 993,4 hPa 0,0 l/m 0 min 0 min 0 W/m 23,0 km/h (4 Bft) 97,87 %
17.09.2015 03:22 16,0 C 15,6 C 13,9 C 83 % 0 lf 993,4 hPa 0,0 l/m 0 min 0 min 0 W/m 33,5 km/h (5 Bft) 95,74 %
17.09.2015 03:24 15,9 C 15,6 C 13,9 C 84 % 0 lf 993,4 hPa 0,0 l/m 0 min 0 min 0 W/m 33,5 km/h (5 Bft) 97,87 %
17.09.2015 03:26 15,8 C 15,6 C 13,9 C 84 % 0 lf 993,4 hPa 0,0 l/m 0 min 0 min 0 W/m 29,3 km/h (5 Bft) 97,83 %
17.09.2015 03:28 15,8 C 15,6 C 13,9 C 84 % 0 lf 993,5 hPa 0,0 l/m 0 min 0 min 0 W/m 27,2 km/h (4 Bft) 95,74 %
17.09.2015 03:30 15,8 C 15,6 C 13,9 C 84 % 0 lf 993,5 hPa 0,0 l/m 0 min 0 min 0 W/m 31,4 km/h (5 Bft) 95,74 %
17.09.2015 03:32 15,7 C 15,6 C 13,9 C 84 % 0 lf 993,5 hPa 0,0 l/m 0 min 0 min 0 W/m 23,0 km/h (4 Bft) 95,74 %
17.09.2015 03:34 15,7 C 15,6 C 13,9 C 84 % 0 lf 993,6 hPa 0,0 l/m 0 min 0 min 0 W/m 27,2 km/h (4 Bft) 93,62 %
17.09.2015 03:36 15,7 C 15,6 C 13,9 C 85 % 0 lf 993,5 hPa 0,0 l/m 0 min 0 min 0 W/m 23,0 km/h (4 Bft) 95,74 %
17.09.2015 03:38 15,6 C 15,6 C 13,9 C 85 % 0 lf 993,3 hPa 0,0 l/m 0 min 0 min 0 W/m 25,1 km/h (4 Bft) 95,65 %
17.09.2015 03:40 15,6 C 15,6 C 13,9 C 85 % 0 lf 993,4 hPa 0,0 l/m 0 min 0 min 0 W/m 37,7 km/h (5 Bft) 95,74 %
17.09.2015 03:42 15,6 C 15,6 C 13,9 C 85 % 0 lf 993,5 hPa 0,0 l/m 0 min 0 min 0 W/m 31,4 km/h (5 Bft) 93,62 %
17.09.2015 03:44 15,6 C 15,6 C 13,9 C 85 % 0 lf 993,5 hPa 0,0 l/m 0 min 0 min 0 W/m 23,0 km/h (4 Bft) 97,87 %
17.09.2015 03:46 15,6 C 15,6 C 13,9 C 85 % 0 lf 993,6 hPa 0,0 l/m 0 min 0 min 0 W/m 27,2 km/h (4 Bft) 93,62 %
17.09.2015 03:48 15,6 C 15,6 C 13,9 C 85 % 0 lf 993,6 hPa 0,0 l/m 0 min 0 min 0 W/m 23,0 km/h (4 Bft) 95,74 %
17.09.2015 03:50 15,6 C 15,6 C 13,9 C 85 % 0 lf 993,5 hPa 0,0 l/m 0 min 0 min 0 W/m 23,0 km/h (4 Bft) 95,65 %
17.09.2015 03:52 15,6 C 15,6 C 13,9 C 85 % 0 lf 993,6 hPa 0,0 l/m 0 min 0 min 0 W/m 18,8 km/h (3 Bft) 93,62 %
17.09.2015 03:54 15,6 C 15,6 C 13,9 C 85 % 0 lf 993,7 hPa 0,0 l/m 0 min 0 min 0 W/m 29,3 km/h (5 Bft) 93,62 %
17.09.2015 03:56 15,6 C 15,6 C 13,9 C 85 % 0 lf 993,8 hPa 0,0 l/m 0 min 0 min 0 W/m 25,1 km/h (4 Bft) 95,74 %
17.09.2015 03:58 15,6 C 15,6 C 13,9 C 85 % 0 lf 993,9 hPa 0,0 l/m 0 min 0 min 0 W/m 37,7 km/h (5 Bft) 93,62 %
17.09.2015 04:00 15,6 C 15,6 C 13,9 C 85 % 0 lf 993,8 hPa 0,0 l/m 0 min 0 min 0 W/m 20,9 km/h (4 Bft) 97,87 %
17.09.2015 04:05 15,5 C 15,6 C 13,9 C 85 % 0 lf 993,7 hPa 0,0 l/m 0 min 0 min 0 W/m 27,2 km/h (4 Bft) 100,00 %
17.09.2015 04:06 15,5 C 15,6 C 13,9 C 85 % 0 lf 993,7 hPa 0,0 l/m 0 min 0 min 0 W/m 25,1 km/h (4 Bft) 95,65 %
17.09.2015 04:08 15,5 C 15,6 C 13,9 C 85 % 0 lf 993,7 hPa 0,0 l/m 0 min 0 min 0 W/m 29,3 km/h (5 Bft) 97,87 %
17.09.2015 04:10 15,5 C 15,6 C 13,9 C 85 % 0 lf 993,7 hPa 0,0 l/m 0 min 0 min 0 W/m 27,2 km/h (4 Bft) 97,87 %
17.09.2015 04:12 15,5 C 15,6 C 13,9 C 86 % 0 lf 993,6 hPa 0,0 l/m 0 min 0 min 0 W/m 29,3 km/h (5 Bft) 100,00 %
17.09.2015 04:14 15,5 C 15,6 C 13,9 C 86 % 0 lf 993,6 hPa 0,0 l/m 0 min 0 min 0 W/m 18,8 km/h (3 Bft) 97,83 %
17.09.2015 04:16 15,4 C 15,6 C 13,3 C 86 % 0 lf 993,6 hPa 0,0 l/m 0 min 0 min 0 W/m 16,7 km/h (3 Bft) 97,87 %
17.09.2015 04:18 15,4 C 15,6 C 13,3 C 86 % 0 lf 993,6 hPa 0,0 l/m 0 min 0 min 0 W/m 27,2 km/h (4 Bft) 95,74 %
17.09.2015 04:20 15,4 C 15,0 C 13,3 C 86 % 0 lf 993,7 hPa 0,0 l/m 0 min 0 min 0 W/m 27,2 km/h (4 Bft) 97,87 %
17.09.2015 04:22 15,4 C 15,6 C 13,3 C 86 % 0 lf 993,8 hPa 0,0 l/m 0 min 0 min 0 W/m 29,3 km/h (5 Bft) 93,62 %
17.09.2015 04:24 15,4 C 15,0 C 13,3 C 86 % 0 lf 993,8 hPa 0,0 l/m 0 min 0 min 0 W/m 18,8 km/h (3 Bft) 95,65 %
17.09.2015 04:26 15,4 C 15,0 C 13,3 C 86 % 0 lf 993,8 hPa 0,0 l/m 0 min 0 min 0 W/m 18,8 km/h (3 Bft) 97,87 %
17.09.2015 04:28 15,4 C 15,0 C 13,3 C 86 % 0 lf 993,8 hPa 0,0 l/m 0 min 0 min 0 W/m 23,0 km/h (4 Bft) 95,74 %
17.09.2015 04:30 15,4 C 15,6 C 13,3 C 86 % 0 lf 993,6 hPa 0,0 l/m 0 min 0 min 0 W/m 37,7 km/h (5 Bft) 97,87 %
17.09.2015 04:32 15,4 C 15,6 C 13,9 C 87 % 0 lf 993,6 hPa 0,0 l/m 0 min 0 min 0 W/m 23,0 km/h (4 Bft) 97,87 %
17.09.2015 04:34 15,4 C 15,6 C 13,9 C 86 % 0 lf 993,6 hPa 0,0 l/m 0 min 0 min 0 W/m 27,2 km/h (4 Bft) 97,87 %
17.09.2015 04:36 15,4 C 15,6 C 13,9 C 86 % 0 lf 993,7 hPa 0,0 l/m 0 min 0 min 0 W/m 20,9 km/h (4 Bft) 97,83 %
17.09.2015 04:38 15,4 C 15,6 C 13,9 C 87 % 0 lf 993,5 hPa 0,0 l/m 0 min 0 min 0 W/m 16,7 km/h (3 Bft) 97,87 %
17.09.2015 04:40 15,4 C 15,6 C 13,3 C 86 % 0 lf 993,5 hPa 0,0 l/m 0 min 0 min 0 W/m 20,9 km/h (4 Bft) 95,74 %
17.09.2015 04:42 15,4 C 15,6 C 13,9 C 86 % 0 lf 993,6 hPa 0,0 l/m 0 min 0 min 0 W/m 33,5 km/h (5 Bft) 97,87 %
17.09.2015 04:44 15,4 C 15,6 C 13,9 C 86 % 0 lf 993,6 hPa 0,0 l/m 0 min 0 min 0 W/m 27,2 km/h (4 Bft) 93,62 %
17.09.2015 04:46 15,4 C 15,6 C 13,9 C 87 % 0 lf 993,5 hPa 0,0 l/m 0 min 0 min 0 W/m 25,1 km/h (4 Bft) 91,49 %
17.09.2015 04:48 15,4 C 15,6 C 13,9 C 87 % 0 lf 993,7 hPa 0,0 l/m 0 min 0 min 0 W/m 27,2 km/h (4 Bft) 93,48 %
17.09.2015 04:50 15,4 C 15,6 C 13,9 C 87 % 0 lf 993,7 hPa 0,0 l/m 0 min 0 min 0 W/m 25,1 km/h (4 Bft) 95,74 %
17.09.2015 04:52 15,4 C 15,6 C 13,9 C 87 % 0 lf 993,7 hPa 0,0 l/m 0 min 0 min 0 W/m 14,6 km/h (3 Bft) 93,62 %
17.09.2015 04:54 15,4 C 15,6 C 13,9 C 87 % 0 lf 993,7 hPa 0,0 l/m 0 min 0 min 0 W/m 16,7 km/h (3 Bft) 93,62 %
17.09.2015 04:56 15,4 C 15,6 C 13,9 C 87 % 0 lf 993,7 hPa 0,0 l/m 0 min 0 min 0 W/m 25,1 km/h (4 Bft) 95,74 %
17.09.2015 04:58 15,4 C 15,6 C 13,9 C 87 % 0 lf 993,8 hPa 0,0 l/m 0 min 0 min 0 W/m 25,1 km/h (4 Bft) 93,62 %
17.09.2015 05:00 15,4 C 15,6 C 13,3 C 87 % 0 lf 993,7 hPa 0,0 l/m 0 min 0 min 0 W/m 20,9 km/h (4 Bft) 93,62 %
17.09.2015 05:02 15,4 C 15,6 C 13,9 C 86 % 0 lf 993,8 hPa 0,0 l/m 0 min 0 min 0 W/m 23,0 km/h (4 Bft) 97,83 %
17.09.2015 05:04 15,4 C 15,6 C 13,9 C 86 % 0 lf 993,7 hPa 0,0 l/m 0 min 0 min 0 W/m 25,1 km/h (4 Bft) 97,87 %
17.09.2015 05:06 15,3 C 15,6 C 13,9 C 86 % 0 lf 993,7 hPa 0,0 l/m 0 min 0 min 0 W/m 16,7 km/h (3 Bft) 93,62 %
17.09.2015 05:08 15,4 C 15,6 C 13,9 C 86 % 0 lf 993,7 hPa 0,0 l/m 0 min 0 min 0 W/m 23,0 km/h (4 Bft) 95,74 %
17.09.2015 05:10 15,3 C 15,0 C 13,3 C 86 % 0 lf 993,7 hPa 0,0 l/m 0 min 0 min 0 W/m 20,9 km/h (4 Bft) 93,62 %
17.09.2015 05:12 15,3 C 15,6 C 13,9 C 86 % 0 lf 993,7 hPa 0,0 l/m 0 min 0 min 0 W/m 23,0 km/h (4 Bft) 97,83 %
17.09.2015 05:14 15,3 C 15,6 C 13,9 C 86 % 0 lf 993,8 hPa 0,0 l/m 0 min 0 min 0 W/m 16,7 km/h (3 Bft) 97,87 %
17.09.2015 05:16 15,3 C 15,6 C 13,3 C 86 % 0 lf 993,9 hPa 0,0 l/m 0 min 0 min 0 W/m 23,0 km/h (4 Bft) 95,74 %
17.09.2015 05:18 15,3 C 15,6 C 13,3 C 86 % 0 lf 994,0 hPa 0,0 l/m 0 min 0 min 0 W/m 20,9 km/h (4 Bft) 93,62 %
17.09.2015 05:20 15,3 C 15,6 C 13,9 C 86 % 0 lf 994,0 hPa 0,0 l/m 0 min 0 min 0 W/m 29,3 km/h (5 Bft) 91,49 %
17.09.2015 05:22 15,3 C 15,6 C 13,9 C 86 % 0 lf 994,0 hPa 0,0 l/m 0 min 0 min 0 W/m 18,8 km/h (3 Bft) 95,74 %
17.09.2015 05:24 15,3 C 15,6 C 13,9 C 86 % 0 lf 993,9 hPa 0,0 l/m 0 min 0 min 0 W/m 16,7 km/h (3 Bft) 95,65 %
17.09.2015 05:26 15,3 C 15,6 C 13,9 C 86 % 0 lf 993,9 hPa 0,0 l/m 0 min 0 min 0 W/m 23,0 km/h (4 Bft) 93,62 %
17.09.2015 05:28 15,3 C 15,6 C 13,9 C 86 % 0 lf 993,9 hPa 0,0 l/m 0 min 0 min 0 W/m 16,7 km/h (3 Bft) 95,74 %
17.09.2015 05:30 15,3 C 15,6 C 13,9 C 86 % 0 lf 994,1 hPa 0,0 l/m 0 min 0 min 0 W/m 14,6 km/h (3 Bft) 95,74 %
17.09.2015 05:32 15,3 C 15,6 C 13,9 C 86 % 0 lf 994,1 hPa 0,0 l/m 0 min 0 min 0 W/m 12,6 km/h (3 Bft) 95,74 %
17.09.2015 05:33 15,3 C 15,6 C 13,3 C 86 % 0 lf 994,0 hPa 0,0 l/m 0 min 0 min 0 W/m 20,9 km/h (4 Bft) 100,00 %
17.09.2015 05:34 15,3 C 15,6 C 13,9 C 86 % 0 lf 994,0 hPa 0,0 l/m 0 min 0 min 0 W/m 25,1 km/h (4 Bft) 95,65 %
17.09.2015 05:35 15,3 C 15,6 C 13,9 C 86 % 0 lf 994,0 hPa 0,0 l/m 0 min 0 min 0 W/m 10,5 km/h (2 Bft) 100,00 %
17.09.2015 05:36 15,3 C 15,6 C 13,9 C 86 % 0 lf 994,0 hPa 0,0 l/m 0 min 0 min 0 W/m 16,7 km/h (3 Bft) 95,65 %
17.09.2015 05:38 15,3 C 15,6 C 13,9 C 86 % 0 lf 994,0 hPa 0,0 l/m 0 min 0 min 0 W/m 10,5 km/h (2 Bft) 96,15 %
17.09.2015 05:40 15,3 C 15,6 C 13,9 C 86 % 0 lf 994,1 hPa 0,0 l/m 0 min 0 min 0 W/m 14,6 km/h (3 Bft) 95,12 %
17.09.2015 05:42 15,3 C 15,6 C 13,9 C 86 % 0 lf 994,1 hPa 0,0 l/m 0 min 0 min 0 W/m 20,9 km/h (4 Bft) 95,74 %
17.09.2015 05:44 15,3 C 15,6 C 13,9 C 86 % 0 lf 993,9 hPa 0,0 l/m 0 min 0 min 0 W/m 14,6 km/h (3 Bft) 97,87 %
17.09.2015 05:46 15,3 C 15,6 C 13,9 C 86 % 0 lf 994,0 hPa 0,0 l/m 0 min 0 min 0 W/m 14,6 km/h (3 Bft) 95,74 %
17.09.2015 05:48 15,3 C 15,6 C 13,9 C 86 % 0 lf 993,9 hPa 0,0 l/m 0 min 0 min 0 W/m 18,8 km/h (3 Bft) 93,62 %
17.09.2015 05:50 15,3 C 15,6 C 13,9 C 86 % 0 lf 993,9 hPa 0,0 l/m 0 min 0 min 0 W/m 14,6 km/h (3 Bft) 97,87 %
17.09.2015 05:52 15,3 C 15,6 C 13,9 C 86 % 0 lf 994,0 hPa 0,0 l/m 0 min 0 min 0 W/m 18,8 km/h (3 Bft) 93,48 %
17.09.2015 05:54 15,3 C 15,6 C 13,9 C 86 % 0 lf 994,0 hPa 0,0 l/m 0 min 0 min 0 W/m 12,6 km/h (3 Bft) 100,00 %
17.09.2015 05:56 15,3 C 15,6 C 13,9 C 86 % 0 lf 994,0 hPa 0,0 l/m 0 min 0 min 0 W/m 14,6 km/h (3 Bft) 95,74 %
17.09.2015 05:58 15,3 C 15,6 C 13,9 C 86 % 0 lf 994,1 hPa 0,0 l/m 0 min 0 min 0 W/m 16,7 km/h (3 Bft) 100,00 %
17.09.2015 06:00 15,3 C 15,6 C 13,9 C 86 % 0 lf 994,1 hPa 0,0 l/m 0 min 0 min 0 W/m 12,6 km/h (3 Bft) 100,00 %
17.09.2015 06:02 15,4 C 15,6 C 13,9 C 86 % 0 lf 994,1 hPa 0,0 l/m 0 min 0 min 0 W/m 12,6 km/h (3 Bft) 100,00 %
17.09.2015 06:06 15,4 C 15,6 C 13,9 C 86 % 0 lf 994,1 hPa 0,0 l/m 0 min 0 min 0 W/m 18,8 km/h (3 Bft) 100,00 %
17.09.2015 06:08 15,4 C 15,6 C 13,9 C 86 % 0 lf 994,2 hPa 0,0 l/m 0 min 0 min 0 W/m 16,7 km/h (3 Bft) 100,00 %
17.09.2015 06:10 15,4 C 15,6 C 13,9 C 86 % 0 lf 994,2 hPa 0,0 l/m 0 min 0 min 0 W/m 18,8 km/h (3 Bft) 97,87 %
17.09.2015 06:12 15,4 C 15,6 C 13,9 C 86 % 0 lf 994,0 hPa 0,0 l/m 0 min 0 min 0 W/m 16,7 km/h (3 Bft) 97,87 %
17.09.2015 06:14 15,4 C 15,6 C 13,9 C 86 % 0 lf 993,9 hPa 0,0 l/m 0 min 0 min 0 W/m 18,8 km/h (3 Bft) 100,00 %
17.09.2015 06:16 15,4 C 15,6 C 13,9 C 86 % 0 lf 993,8 hPa 0,0 l/m 0 min 0 min 0 W/m 16,7 km/h (3 Bft) 100,00 %
17.09.2015 06:18 15,4 C 15,6 C 13,9 C 86 % 0 lf 993,7 hPa 0,0 l/m 0 min 0 min 0 W/m 20,9 km/h (4 Bft) 100,00 %
17.09.2015 06:20 15,4 C 15,6 C 13,9 C 86 % 0 lf 993,7 hPa 0,0 l/m 0 min 0 min 0 W/m 12,6 km/h (3 Bft) 97,87 %
17.09.2015 06:22 15,4 C 15,6 C 13,9 C 86 % 0 lf 993,7 hPa 0,0 l/m 0 min 0 min 0 W/m 12,6 km/h (3 Bft) 100,00 %
17.09.2015 06:24 15,4 C 15,6 C 13,9 C 86 % 0 lf 993,7 hPa 0,0 l/m 0 min 0 min 0 W/m 12,6 km/h (3 Bft) 100,00 %
17.09.2015 06:26 15,4 C 15,6 C 13,9 C 86 % 0 lf 993,8 hPa 0,0 l/m 0 min 0 min 0 W/m 12,6 km/h (3 Bft) 93,62 %
17.09.2015 06:28 15,4 C 15,6 C 13,9 C 86 % 0 lf 993,9 hPa 0,0 l/m 0 min 0 min 0 W/m 18,8 km/h (3 Bft) 100,00 %
17.09.2015 06:30 15,4 C 15,6 C 13,9 C 86 % 0 lf 993,8 hPa 0,0 l/m 0 min 0 min 0 W/m 23,0 km/h (4 Bft) 97,87 %
17.09.2015 06:32 15,4 C 15,6 C 13,9 C 86 % 0 lf 993,9 hPa 0,0 l/m 0 min 0 min 0 W/m 27,2 km/h (4 Bft) 100,00 %
17.09.2015 06:34 15,3 C 15,6 C 13,9 C 86 % 0 lf 994,0 hPa 0,0 l/m 0 min 0 min 0 W/m 16,7 km/h (3 Bft) 100,00 %
17.09.2015 06:36 15,4 C 15,6 C 13,9 C 86 % 0 lf 994,1 hPa 0,0 l/m 0 min 0 min 0 W/m 16,7 km/h (3 Bft) 97,87 %
17.09.2015 06:38 15,4 C 15,6 C 13,9 C 86 % 0 lf 994,2 hPa 0,0 l/m 0 min 0 min 0 W/m 20,9 km/h (4 Bft) 97,87 %
17.09.2015 06:40 15,4 C 15,6 C 13,9 C 86 % 0 lf 994,3 hPa 0,0 l/m 0 min 0 min 0 W/m 18,8 km/h (3 Bft) 93,48 %
17.09.2015 06:42 15,4 C 15,6 C 13,9 C 86 % 0 lf 994,4 hPa 0,0 l/m 0 min 0 min 0 W/m 16,7 km/h (3 Bft) 100,00 %
17.09.2015 06:44 15,4 C 15,6 C 13,9 C 86 % 0 lf 994,3 hPa 0,0 l/m 0 min 0 min 0 W/m 18,8 km/h (3 Bft) 100,00 %
17.09.2015 06:46 15,4 C 15,6 C 13,9 C 86 % 0 lf 994,2 hPa 0,0 l/m 0 min 0 min 0 W/m 16,7 km/h (3 Bft) 100,00 %
17.09.2015 06:48 15,4 C 15,6 C 13,9 C 86 % 0 lf 994,1 hPa 0,0 l/m 0 min 0 min 0 W/m 23,0 km/h (4 Bft) 95,74 %
17.09.2015 06:50 15,4 C 15,6 C 13,9 C 86 % 0 lf 994,1 hPa 0,0 l/m 0 min 0 min 0 W/m 16,7 km/h (3 Bft) 97,83 %
17.09.2015 06:52 15,4 C 15,6 C 13,9 C 86 % 0 lf 994,0 hPa 0,0 l/m 0 min 0 min 0 W/m 12,6 km/h (3 Bft) 95,45 %
17.09.2015 06:54 15,4 C 15,6 C 13,9 C 86 % 0 lf 994,0 hPa 0,0 l/m 0 min 0 min 0 W/m 14,6 km/h (3 Bft) 97,87 %
17.09.2015 06:56 15,4 C 15,6 C 13,9 C 86 % 0 lf 994,0 hPa 0,0 l/m 0 min 0 min 0 W/m 14,6 km/h (3 Bft) 97,87 %
17.09.2015 06:58 15,4 C 15,6 C 13,9 C 86 % 0 lf 993,9 hPa 0,0 l/m 0 min 0 min 0 W/m 14,6 km/h (3 Bft) 95,65 %
17.09.2015 07:00 15,4 C 15,6 C 13,9 C 86 % 0 lf 993,8 hPa 0,0 l/m 0 min 0 min 0 W/m 14,6 km/h (3 Bft) 97,87 %
17.09.2015 07:02 15,4 C 15,6 C 13,9 C 86 % 0 lf 994,0 hPa 0,0 l/m 0 min 0 min 0 W/m 20,9 km/h (4 Bft) 93,62 %
17.09.2015 07:04 15,4 C 15,6 C 13,9 C 86 % 0 lf 994,2 hPa 0,0 l/m 0 min 0 min 0 W/m 16,7 km/h (3 Bft) 95,74 %
17.09.2015 07:06 15,4 C 15,6 C 13,9 C 86 % 0 lf 994,3 hPa 0,0 l/m 0 min 0 min 0 W/m 18,8 km/h (3 Bft) 91,49 %
17.09.2015 07:08 15,4 C 15,6 C 13,9 C 86 % 0 lf 994,4 hPa 0,0 l/m 0 min 0 min 0 W/m 14,6 km/h (3 Bft) 95,74 %
17.09.2015 07:10 15,4 C 15,6 C 13,9 C 86 % 0 lf 994,3 hPa 0,0 l/m 0 min 0 min 0 W/m 18,8 km/h (3 Bft) 95,65 %
17.09.2015 07:12 15,4 C 15,6 C 13,9 C 86 % 0 lf 994,2 hPa 0,0 l/m 0 min 0 min 0 W/m 16,7 km/h (3 Bft) 95,74 %
17.09.2015 07:14 15,4 C 15,6 C 13,9 C 86 % 0 lf 994,1 hPa 0,0 l/m 0 min 0 min 0 W/m 18,8 km/h (3 Bft) 95,74 %
17.09.2015 07:16 15,4 C 15,6 C 13,9 C 86 % 0 lf 994,0 hPa 0,0 l/m 0 min 0 min 1 W/m 25,1 km/h (4 Bft) 89,36 %
17.09.2015 07:18 15,4 C 15,6 C 13,9 C 86 % 0 lf 994,2 hPa 0,0 l/m 0 min 0 min 5 W/m 25,1 km/h (4 Bft) 95,74 %
17.09.2015 07:20 15,4 C 15,6 C 13,9 C 86 % 0 lf 994,3 hPa 0,0 l/m 0 min 0 min 5 W/m 18,8 km/h (3 Bft) 93,48 %
17.09.2015 07:22 15,4 C 15,6 C 13,9 C 86 % 0 lf 994,7 hPa 0,0 l/m 0 min 0 min 5 W/m 25,1 km/h (4 Bft) 91,49 %
17.09.2015 07:24 15,4 C 15,6 C 13,9 C 86 % 0 lf 994,9 hPa 0,0 l/m 0 min 0 min 3 W/m 25,1 km/h (4 Bft) 91,49 %
17.09.2015 07:26 15,4 C 15,6 C 13,9 C 86 % 0 lf 994,8 hPa 0,0 l/m 0 min 0 min 0 W/m 29,3 km/h (5 Bft) 91,49 %
17.09.2015 07:28 15,4 C 15,6 C 13,9 C 86 % 0 lf 994,6 hPa 0,0 l/m 0 min 0 min 5 W/m 29,3 km/h (5 Bft) 93,62 %
17.09.2015 07:30 15,4 C 15,6 C 13,9 C 86 % 0 lf 994,5 hPa 0,0 l/m 0 min 0 min 5 W/m 14,6 km/h (3 Bft) 93,62 %
17.09.2015 07:32 15,5 C 15,6 C 13,9 C 86 % 0 lf 994,4 hPa 0,0 l/m 0 min 0 min 5 W/m 27,2 km/h (4 Bft) 93,62 %
17.09.2015 07:34 15,5 C 16,1 C 13,9 C 86 % 0 lf 994,5 hPa 0,0 l/m 0 min 0 min 7 W/m 31,4 km/h (5 Bft) 86,96 %
17.09.2015 07:36 15,5 C 16,1 C 13,9 C 86 % 0 lf 994,8 hPa 0,0 l/m 0 min 0 min 10 W/m 16,7 km/h (3 Bft) 93,62 %
17.09.2015 07:38 15,6 C 16,1 C 13,9 C 86 % 0 lf 995,0 hPa 0,0 l/m 0 min 0 min 11 W/m 27,2 km/h (4 Bft) 91,49 %
17.09.2015 07:40 15,6 C 16,1 C 13,9 C 85 % 0 lf 995,3 hPa 0,0 l/m 0 min 0 min 9 W/m 25,1 km/h (4 Bft) 95,74 %
17.09.2015 07:42 15,6 C 16,1 C 13,9 C 85 % 0 lf 995,4 hPa 0,0 l/m 0 min 0 min 9 W/m 25,1 km/h (4 Bft) 91,49 %
17.09.2015 07:44 15,6 C 16,1 C 14,4 C 85 % 0 lf 995,5 hPa 0,0 l/m 0 min 0 min 9 W/m 23,0 km/h (4 Bft) 95,65 %
17.09.2015 07:46 15,6 C 16,1 C 14,4 C 85 % 0 lf 995,4 hPa 0,0 l/m 0 min 0 min 10 W/m 33,5 km/h (5 Bft) 91,49 %
17.09.2015 07:48 15,7 C 16,1 C 14,4 C 85 % 0 lf 995,4 hPa 0,0 l/m 0 min 0 min 12 W/m 31,4 km/h (5 Bft) 91,49 %
17.09.2015 07:50 15,7 C 16,1 C 14,4 C 85 % 0 lf 995,4 hPa 0,0 l/m 0 min 0 min 12 W/m 27,2 km/h (4 Bft) 91,49 %
17.09.2015 07:52 15,7 C 16,1 C 14,4 C 85 % 0 lf 995,5 hPa 0,0 l/m 0 min 0 min 14 W/m 27,2 km/h (4 Bft) 92,00 %
17.09.2015 07:54 15,7 C 16,1 C 14,4 C 85 % 0 lf 995,4 hPa 0,0 l/m 0 min 0 min 18 W/m 20,9 km/h (4 Bft) 97,87 %
17.09.2015 07:56 15,8 C 16,1 C 14,4 C 85 % 0 lf 995,3 hPa 0,0 l/m 0 min 0 min 18 W/m 25,1 km/h (4 Bft) 93,48 %
17.09.2015 07:58 15,8 C 16,1 C 14,4 C 85 % 0 lf 995,1 hPa 0,0 l/m 0 min 0 min 20 W/m 23,0 km/h (4 Bft) 97,87 %
17.09.2015 08:00 15,8 C 16,1 C 14,4 C 85 % 0 lf 994,9 hPa 0,0 l/m 0 min 0 min 25 W/m 18,8 km/h (3 Bft) 95,74 %
17.09.2015 08:02 15,8 C 16,1 C 14,4 C 85 % 0 lf 994,9 hPa 0,0 l/m 0 min 0 min 27 W/m 23,0 km/h (4 Bft) 93,62 %
17.09.2015 08:04 15,8 C 16,1 C 14,4 C 84 % 0 lf 995,0 hPa 0,0 l/m 0 min 0 min 32 W/m 20,9 km/h (4 Bft) 97,87 %
17.09.2015 08:06 15,8 C 16,1 C 14,4 C 84 % 0 lf 995,1 hPa 0,0 l/m 0 min 0 min 33 W/m 20,9 km/h (4 Bft) 91,30 %
17.09.2015 08:08 15,9 C 16,1 C 14,4 C 84 % 0 lf 995,2 hPa 0,0 l/m 0 min 0 min 27 W/m 25,1 km/h (4 Bft) 97,87 %
17.09.2015 08:10 15,9 C 16,1 C 14,4 C 84 % 0 lf 995,4 hPa 0,0 l/m 0 min 0 min 24 W/m 25,1 km/h (4 Bft) 95,74 %
17.09.2015 08:12 15,9 C 16,1 C 14,4 C 84 % 0 lf 995,4 hPa 0,0 l/m 0 min 0 min 20 W/m 25,1 km/h (4 Bft) 97,87 %
17.09.2015 08:14 15,9 C 16,1 C 14,4 C 84 % 0 lf 995,4 hPa 0,0 l/m 0 min 0 min 19 W/m 18,8 km/h (3 Bft) 95,74 %
17.09.2015 08:16 15,9 C 16,1 C 14,4 C 84 % 0 lf 995,3 hPa 0,0 l/m 0 min 0 min 19 W/m 18,8 km/h (3 Bft) 97,87 %
17.09.2015 08:18 15,9 C 16,1 C 14,4 C 84 % 0 lf 995,3 hPa 0,0 l/m 0 min 0 min 18 W/m 18,8 km/h (3 Bft) 95,65 %
17.09.2015 08:20 15,9 C 16,1 C 14,4 C 84 % 0 lf 995,4 hPa 0,0 l/m 0 min 0 min 19 W/m 16,7 km/h (3 Bft) 95,74 %
17.09.2015 08:22 15,9 C 16,1 C 14,4 C 84 % 0 lf 995,4 hPa 0,0 l/m 0 min 0 min 20 W/m 16,7 km/h (3 Bft) 95,74 %
17.09.2015 08:24 15,9 C 16,1 C 14,4 C 84 % 0 lf 995,3 hPa 0,0 l/m 0 min 0 min 22 W/m 14,6 km/h (3 Bft) 97,87 %
17.09.2015 08:26 15,9 C 16,1 C 14,4 C 84 % 0 lf 995,2 hPa 0,0 l/m 0 min 0 min 26 W/m 14,6 km/h (3 Bft) 97,87 %
17.09.2015 08:28 16,0 C 16,1 C 14,4 C 84 % 0 lf 995,1 hPa 0,0 l/m 0 min 0 min 28 W/m 12,6 km/h (3 Bft) 97,87 %
17.09.2015 08:30 16,0 C 16,1 C 14,4 C 84 % 0 lf 995,0 hPa 0,0 l/m 0 min 0 min 27 W/m 12,6 km/h (3 Bft) 95,65 %
17.09.2015 08:32 16,0 C 16,1 C 14,4 C 84 % 0 lf 995,2 hPa 0,0 l/m 0 min 0 min 24 W/m 14,6 km/h (3 Bft) 93,62 %
17.09.2015 08:34 16,0 C 16,1 C 14,4 C 84 % 0 lf 995,3 hPa 0,0 l/m 0 min 0 min 22 W/m 20,9 km/h (4 Bft) 100,00 %
17.09.2015 08:36 16,0 C 16,1 C 14,4 C 84 % 0 lf 995,3 hPa 0,0 l/m 0 min 0 min 19 W/m 14,6 km/h (3 Bft) 97,87 %
17.09.2015 08:38 16,0 C 16,1 C 14,4 C 84 % 0 lf 995,4 hPa 0,0 l/m 0 min 0 min 16 W/m 18,8 km/h (3 Bft) 97,87 %
17.09.2015 08:40 16,0 C 16,1 C 14,4 C 84 % 0 lf 995,4 hPa 0,0 l/m 0 min 0 min 17 W/m 16,7 km/h (3 Bft) 100,00 %
17.09.2015 08:42 16,0 C 16,1 C 14,4 C 84 % 0 lf 995,3 hPa 0,0 l/m 0 min 0 min 25 W/m 16,7 km/h (3 Bft) 97,83 %
17.09.2015 08:44 16,0 C 16,1 C 14,4 C 84 % 0 lf 995,4 hPa 0,0 l/m 0 min 0 min 27 W/m 12,6 km/h (3 Bft) 100,00 %
17.09.2015 08:46 16,0 C 16,1 C 14,4 C 84 % 0 lf 995,3 hPa 0,0 l/m 0 min 0 min 21 W/m 14,6 km/h (3 Bft) 100,00 %
17.09.2015 08:48 15,9 C 16,1 C 14,4 C 84 % 0 lf 995,4 hPa 0,0 l/m 0 min 0 min 15 W/m 18,8 km/h (3 Bft) 97,87 %
17.09.2015 08:50 16,0 C 16,1 C 14,4 C 84 % 0 lf 995,5 hPa 0,0 l/m 0 min 0 min 14 W/m 20,9 km/h (4 Bft) 100,00 %
17.09.2015 08:52 16,0 C 16,1 C 14,4 C 84 % 0 lf 995,3 hPa 0,0 l/m 0 min 0 min 14 W/m 14,6 km/h (3 Bft) 97,87 %
17.09.2015 08:54 16,0 C 16,1 C 14,4 C 84 % 0 lf 995,3 hPa 0,0 l/m 0 min 0 min 14 W/m 16,7 km/h (3 Bft) 100,00 %
17.09.2015 08:56 16,0 C 16,1 C 14,4 C 84 % 0 lf 995,4 hPa 0,0 l/m 0 min 0 min 16 W/m 16,7 km/h (3 Bft) 100,00 %
17.09.2015 08:58 16,0 C 16,1 C 14,4 C 84 % 0 lf 995,4 hPa 0,0 l/m 0 min 0 min 18 W/m 20,9 km/h (4 Bft) 100,00 %
17.09.2015 09:00 16,0 C 16,1 C 14,4 C 84 % 0 lf 995,2 hPa 0,0 l/m 0 min 0 min 19 W/m 16,7 km/h (3 Bft) 95,74 %
17.09.2015 09:02 16,0 C 16,1 C 14,4 C 84 % 0 lf 994,9 hPa 0,0 l/m 0 min 0 min 19 W/m 14,6 km/h (3 Bft) 100,00 %
17.09.2015 09:04 16,0 C 16,1 C 14,4 C 84 % 0 lf 994,8 hPa 0,0 l/m 0 min 0 min 26 W/m 14,6 km/h (3 Bft) 97,87 %
17.09.2015 09:06 16,0 C 16,1 C 14,4 C 84 % 0 lf 994,6 hPa 0,0 l/m 0 min 0 min 37 W/m 12,6 km/h (3 Bft) 100,00 %
17.09.2015 09:08 16,0 C 16,1 C 14,4 C 84 % 0 lf 994,8 hPa 0,0 l/m 0 min 0 min 43 W/m 25,1 km/h (4 Bft) 100,00 %
17.09.2015 09:10 16,0 C 16,1 C 14,4 C 84 % 0 lf 994,9 hPa 0,0 l/m 0 min 0 min 40 W/m 18,8 km/h (3 Bft) 97,87 %
17.09.2015 09:12 16,0 C 16,1 C 14,4 C 85 % 0 lf 995,1 hPa 0,0 l/m 0 min 0 min 34 W/m 18,8 km/h (3 Bft) 97,87 %
17.09.2015 09:14 16,1 C 16,7 C 15,0 C 85 % 0 lf 995,2 hPa 0,0 l/m 0 min 0 min 34 W/m 20,9 km/h (4 Bft) 97,87 %
17.09.2015 09:16 16,1 C 16,7 C 15,0 C 85 % 0 lf 995,2 hPa 0,0 l/m 0 min 0 min 33 W/m 16,7 km/h (3 Bft) 91,30 %
17.09.2015 09:18 16,1 C 16,7 C 15,0 C 85 % 0 lf 995,5 hPa 0,0 l/m 0 min 0 min 25 W/m 18,8 km/h (3 Bft) 97,87 %
17.09.2015 09:20 16,1 C 16,7 C 15,0 C 85 % 0 lf 995,9 hPa 0,0 l/m 0 min 0 min 21 W/m 25,1 km/h (4 Bft) 97,87 %
17.09.2015 09:22 16,1 C 16,7 C 15,0 C 85 % 0 lf 995,9 hPa 0,0 l/m 0 min 0 min 21 W/m 20,9 km/h (4 Bft) 97,87 %
17.09.2015 09:24 16,1 C 16,7 C 15,0 C 85 % 0 lf 996,2 hPa 0,0 l/m 0 min 0 min 22 W/m 31,4 km/h (5 Bft) 97,87 %
17.09.2015 09:26 16,1 C 16,7 C 15,0 C 85 % 0 lf 996,3 hPa 0,0 l/m 0 min 0 min 27 W/m 18,8 km/h (3 Bft) 97,87 %
17.09.2015 09:28 16,1 C 16,7 C 15,0 C 85 % 0 lf 996,2 hPa 0,0 l/m 0 min 0 min 24 W/m 27,2 km/h (4 Bft) 97,87 %
17.09.2015 09:30 16,1 C 16,7 C 15,0 C 85 % 0 lf 996,0 hPa 0,0 l/m 0 min 0 min 19 W/m 37,7 km/h (5 Bft) 97,87 %
17.09.2015 09:32 16,2 C 16,7 C 15,0 C 84 % 0 lf 996,0 hPa 0,0 l/m 0 min 0 min 20 W/m 23,0 km/h (4 Bft) 95,74 %
17.09.2015 09:34 16,2 C 16,7 C 15,0 C 84 % 0 lf 996,2 hPa 0,0 l/m 0 min 0 min 24 W/m 23,0 km/h (4 Bft) 95,65 %
17.09.2015 09:36 16,2 C 16,7 C 15,0 C 84 % 0 lf 996,1 hPa 0,0 l/m 0 min 0 min 29 W/m 16,7 km/h (3 Bft) 95,74 %
17.09.2015 09:38 16,2 C 16,7 C 15,0 C 84 % 0 lf 996,2 hPa 0,0 l/m 0 min 0 min 33 W/m 18,8 km/h (3 Bft) 97,87 %
17.09.2015 09:40 16,2 C 16,7 C 15,0 C 84 % 0 lf 996,3 hPa 0,0 l/m 0 min 0 min 35 W/m 18,8 km/h (3 Bft) 95,74 %
17.09.2015 09:42 16,2 C 16,7 C 15,0 C 84 % 0 lf 996,3 hPa 0,0 l/m 0 min 0 min 33 W/m 20,9 km/h (4 Bft) 93,62 %
17.09.2015 09:44 16,2 C 16,7 C 15,0 C 84 % 0 lf 996,2 hPa 0,0 l/m 0 min 0 min 29 W/m 31,4 km/h (5 Bft) 97,87 %
17.09.2015 09:46 16,3 C 16,7 C 15,0 C 84 % 0 lf 996,2 hPa 0,0 l/m 0 min 0 min 26 W/m 23,0 km/h (4 Bft) 97,83 %
17.09.2015 09:48 16,3 C 16,7 C 15,0 C 84 % 0 lf 996,3 hPa 0,0 l/m 0 min 0 min 25 W/m 23,0 km/h (4 Bft) 97,87 %
17.09.2015 09:50 16,3 C 16,7 C 15,0 C 84 % 0 lf 996,2 hPa 0,0 l/m 0 min 0 min 25 W/m 20,9 km/h (4 Bft) 95,74 %
17.09.2015 09:52 16,3 C 16,7 C 15,0 C 84 % 0 lf 996,2 hPa 0,0 l/m 0 min 0 min 31 W/m 18,8 km/h (3 Bft) 97,87 %
17.09.2015 09:54 16,3 C 16,7 C 15,0 C 84 % 0 lf 996,1 hPa 0,0 l/m 0 min 0 min 44 W/m 25,1 km/h (4 Bft) 97,87 %
17.09.2015 09:56 16,3 C 16,7 C 15,0 C 84 % 0 lf 996,1 hPa 0,0 l/m 0 min 0 min 45 W/m 25,1 km/h (4 Bft) 97,87 %
17.09.2015 09:58 16,3 C 16,1 C 14,4 C 84 % 15 lf 996,3 hPa 0,0 l/m 0 min 2 min 46 W/m 27,2 km/h (4 Bft) 97,83 %
17.09.2015 10:00 16,3 C 15,6 C 13,9 C 84 % 15 lf 996,3 hPa 0,0 l/m 0 min 2 min 58 W/m 27,2 km/h (4 Bft) 93,62 %
17.09.2015 10:02 16,3 C 15,0 C 13,3 C 85 % 14 lf 996,1 hPa 0,0 l/m 0 min 2 min 89 W/m 37,7 km/h (5 Bft) 95,74 %
17.09.2015 10:04 16,3 C 15,0 C 13,3 C 85 % 13 lf 996,1 hPa 0,0 l/m 0 min 0 min 89 W/m 23,0 km/h (4 Bft) 97,87 %
17.09.2015 10:06 16,3 C 15,6 C 13,3 C 85 % 10 lf 996,1 hPa 0,0 l/m 0 min 0 min 69 W/m 16,7 km/h (3 Bft) 95,74 %
17.09.2015 10:08 16,3 C 15,6 C 13,3 C 86 % 5 lf 996,2 hPa 0,0 l/m 0 min 0 min 59 W/m 14,6 km/h (3 Bft) 93,62 %
17.09.2015 10:10 16,3 C 15,6 C 13,3 C 86 % 3 lf 996,3 hPa 0,0 l/m 0 min 0 min 59 W/m 16,7 km/h (3 Bft) 97,83 %
17.09.2015 10:12 16,3 C 15,6 C 13,3 C 86 % 1 lf 996,3 hPa 0,0 l/m 0 min 0 min 58 W/m 14,6 km/h (3 Bft) 95,74 %
17.09.2015 10:14 16,3 C 16,1 C 13,9 C 86 % 0 lf 996,3 hPa 0,0 l/m 0 min 0 min 61 W/m 16,7 km/h (3 Bft) 97,87 %
17.09.2015 10:16 16,2 C 16,1 C 13,9 C 86 % 0 lf 996,3 hPa 0,0 l/m 0 min 0 min 54 W/m 23,0 km/h (4 Bft) 95,74 %
17.09.2015 10:18 16,2 C 16,1 C 13,9 C 86 % 0 lf 996,4 hPa 0,0 l/m 0 min 0 min 39 W/m 16,7 km/h (3 Bft) 97,87 %
17.09.2015 10:20 16,2 C 16,1 C 13,9 C 86 % 0 lf 996,5 hPa 0,0 l/m 0 min 0 min 44 W/m 29,3 km/h (5 Bft) 97,87 %
17.09.2015 10:22 16,2 C 16,7 C 13,9 C 86 % 0 lf 996,5 hPa 0,0 l/m 0 min 0 min 52 W/m 16,7 km/h (3 Bft) 97,83 %
17.09.2015 10:24 16,2 C 16,7 C 13,9 C 86 % 0 lf 996,6 hPa 0,0 l/m 0 min 0 min 50 W/m 16,7 km/h (3 Bft) 95,74 %
17.09.2015 10:26 16,2 C 16,7 C 13,9 C 86 % 0 lf 996,6 hPa 0,0 l/m 0 min 0 min 45 W/m 14,6 km/h (3 Bft) 93,62 %
17.09.2015 10:28 16,2 C 16,7 C 13,9 C 86 % 0 lf 996,6 hPa 0,0 l/m 0 min 0 min 40 W/m 23,0 km/h (4 Bft) 93,62 %
17.09.2015 10:30 16,2 C 16,7 C 14,4 C 86 % 0 lf 996,7 hPa 0,0 l/m 0 min 0 min 41 W/m 20,9 km/h (4 Bft) 95,74 %
17.09.2015 10:32 16,2 C 16,7 C 14,4 C 86 % 0 lf 996,8 hPa 0,0 l/m 0 min 0 min 44 W/m 23,0 km/h (4 Bft) 95,74 %
17.09.2015 10:34 16,2 C 16,7 C 14,4 C 86 % 0 lf 996,8 hPa 0,0 l/m 0 min 0 min 40 W/m 23,0 km/h (4 Bft) 93,48 %
17.09.2015 10:36 16,2 C 16,7 C 14,4 C 86 % 0 lf 996,7 hPa 0,0 l/m 0 min 0 min 51 W/m 20,9 km/h (4 Bft) 93,62 %
17.09.2015 10:38 16,2 C 16,7 C 15,0 C 86 % 0 lf 996,9 hPa 0,0 l/m 0 min 0 min 76 W/m 23,0 km/h (4 Bft) 93,62 %
17.09.2015 10:40 16,2 C 16,7 C 15,0 C 86 % 0 lf 996,9 hPa 0,0 l/m 0 min 0 min 83 W/m 12,6 km/h (3 Bft) 95,74 %
17.09.2015 10:42 16,2 C 17,2 C 15,0 C 86 % 0 lf 996,8 hPa 0,0 l/m 0 min 0 min 85 W/m 23,0 km/h (4 Bft) 97,87 %
17.09.2015 10:44 16,2 C 17,2 C 15,0 C 86 % 0 lf 996,7 hPa 0,0 l/m 0 min 0 min 89 W/m 29,3 km/h (5 Bft) 95,65 %
17.09.2015 10:46 16,3 C 17,2 C 15,6 C 85 % 0 lf 996,5 hPa 0,0 l/m 0 min 0 min 101 W/m 27,2 km/h (4 Bft) 93,62 %
17.09.2015 10:48 16,3 C 17,2 C 15,6 C 85 % 0 lf 996,6 hPa 0,0 l/m 0 min 0 min 129 W/m 29,3 km/h (5 Bft) 93,62 %
17.09.2015 10:50 16,4 C 17,8 C 15,6 C 85 % 0 lf 996,7 hPa 0,0 l/m 0 min 0 min 162 W/m 20,9 km/h (4 Bft) 95,74 %
17.09.2015 10:52 16,4 C 17,8 C 15,6 C 85 % 0 lf 996,8 hPa 0,0 l/m 0 min 0 min 174 W/m 25,1 km/h (4 Bft) 95,74 %
17.09.2015 10:54 16,5 C 17,8 C 16,1 C 85 % 0 lf 996,7 hPa 0,0 l/m 0 min 0 min 186 W/m 25,1 km/h (4 Bft) 95,74 %
17.09.2015 10:56 16,6 C 17,8 C 16,1 C 85 % 0 lf 996,6 hPa 0,0 l/m 0 min 0 min 181 W/m 29,3 km/h (5 Bft) 93,48 %
17.09.2015 10:58 16,6 C 17,8 C 16,1 C 84 % 0 lf 996,4 hPa 0,0 l/m 0 min 0 min 147 W/m 39,7 km/h (6 Bft) 93,62 %
17.09.2015 11:00 16,7 C 17,8 C 16,1 C 84 % 0 lf 996,3 hPa 0,0 l/m 0 min 0 min 125 W/m 23,0 km/h (4 Bft) 95,74 %
17.09.2015 11:02 16,7 C 17,8 C 16,1 C 84 % 0 lf 996,4 hPa 0,0 l/m 0 min 0 min 129 W/m 14,6 km/h (3 Bft) 93,62 %
17.09.2015 11:04 16,8 C 17,8 C 16,1 C 84 % 0 lf 996,4 hPa 0,0 l/m 0 min 0 min 139 W/m 23,0 km/h (4 Bft) 95,74 %
17.09.2015 11:06 16,8 C 17,8 C 16,1 C 83 % 0 lf 996,2 hPa 0,0 l/m 0 min 0 min 144 W/m 20,9 km/h (4 Bft) 95,74 %
17.09.2015 11:08 16,8 C 17,8 C 16,1 C 84 % 0 lf 996,4 hPa 0,0 l/m 0 min 0 min 145 W/m 20,9 km/h (4 Bft) 95,65 %
17.09.2015 11:10 16,9 C 18,3 C 16,1 C 83 % 0 lf 996,6 hPa 0,0 l/m 0 min 0 min 150 W/m 16,7 km/h (3 Bft) 95,74 %
17.09.2015 11:12 16,9 C 18,3 C 16,1 C 83 % 0 lf 996,5 hPa 0,0 l/m 0 min 0 min 158 W/m 16,7 km/h (3 Bft) 93,62 %
17.09.2015 11:14 16,9 C 18,3 C 16,1 C 83 % 0 lf 996,6 hPa 0,0 l/m 0 min 0 min 167 W/m 16,7 km/h (3 Bft) 91,49 %
17.09.2015 11:16 17,0 C 18,3 C 16,1 C 83 % 0 lf 996,6 hPa 0,0 l/m 0 min 0 min 152 W/m 14,6 km/h (3 Bft) 87,23 %
17.09.2015 11:18 17,0 C 18,3 C 16,1 C 83 % 0 lf 996,7 hPa 0,0 l/m 0 min 0 min 137 W/m 18,8 km/h (3 Bft) 91,49 %
17.09.2015 11:20 17,1 C 17,8 C 16,1 C 83 % 0 lf 996,9 hPa 0,0 l/m 0 min 0 min 108 W/m 31,4 km/h (5 Bft) 91,30 %
17.09.2015 11:22 17,1 C 17,8 C 16,1 C 83 % 0 lf 997,2 hPa 0,0 l/m 0 min 0 min 92 W/m 27,2 km/h (4 Bft) 95,74 %
17.09.2015 11:24 17,1 C 17,8 C 16,1 C 82 % 0 lf 997,2 hPa 0,0 l/m 0 min 0 min 86 W/m 23,0 km/h (4 Bft) 93,62 %
17.09.2015 11:26 17,1 C 17,8 C 16,1 C 82 % 0 lf 997,2 hPa 0,0 l/m 0 min 0 min 81 W/m 20,9 km/h (4 Bft) 93,62 %
17.09.2015 11:28 17,1 C 17,8 C 16,1 C 82 % 0 lf 997,3 hPa 0,0 l/m 0 min 0 min 68 W/m 16,7 km/h (3 Bft) 93,62 %
17.09.2015 11:30 17,1 C 17,8 C 15,6 C 82 % 0 lf 997,4 hPa 0,0 l/m 0 min 0 min 58 W/m 23,0 km/h (4 Bft) 95,74 %
17.09.2015 11:32 17,1 C 17,2 C 15,6 C 82 % 0 lf 997,5 hPa 0,0 l/m 0 min 0 min 54 W/m 20,9 km/h (4 Bft) 93,48 %
17.09.2015 11:34 17,1 C 17,2 C 15,6 C 82 % 0 lf 997,4 hPa 0,0 l/m 0 min 0 min 47 W/m 23,0 km/h (4 Bft) 95,74 %
17.09.2015 11:36 17,1 C 17,2 C 15,6 C 82 % 0 lf 997,4 hPa 0,0 l/m 0 min 0 min 57 W/m 16,7 km/h (3 Bft) 95,74 %
17.09.2015 11:38 17,1 C 17,2 C 15,6 C 82 % 0 lf 997,5 hPa 0,0 l/m 0 min 0 min 63 W/m 23,0 km/h (4 Bft) 95,74 %
17.09.2015 11:40 17,1 C 17,2 C 15,6 C 82 % 0 lf 997,3 hPa 0,0 l/m 0 min 0 min 62 W/m 18,8 km/h (3 Bft) 95,74 %
17.09.2015 11:42 17,1 C 17,2 C 15,6 C 82 % 0 lf 997,4 hPa 0,0 l/m 0 min 0 min 60 W/m 29,3 km/h (5 Bft) 97,87 %
17.09.2015 11:44 17,1 C 17,2 C 15,6 C 82 % 0 lf 997,2 hPa 0,0 l/m 0 min 0 min 63 W/m 20,9 km/h (4 Bft) 93,48 %
17.09.2015 11:46 17,1 C 17,2 C 15,6 C 82 % 0 lf 997,2 hPa 0,0 l/m 0 min 0 min 87 W/m 16,7 km/h (3 Bft) 100,00 %
17.09.2015 11:48 17,1 C 17,8 C 16,1 C 82 % 0 lf 997,2 hPa 0,0 l/m 0 min 0 min 133 W/m 29,3 km/h (5 Bft) 100,00 %
17.09.2015 11:50 17,1 C 17,8 C 16,1 C 82 % 0 lf 997,1 hPa 0,0 l/m 0 min 0 min 178 W/m 16,7 km/h (3 Bft) 97,87 %
17.09.2015 11:52 17,1 C 18,3 C 16,1 C 82 % 0 lf 997,2 hPa 0,0 l/m 0 min 0 min 205 W/m 33,5 km/h (5 Bft) 100,00 %
17.09.2015 11:54 17,1 C 18,3 C 16,7 C 82 % 0 lf 997,3 hPa 0,0 l/m 0 min 0 min 197 W/m 20,9 km/h (4 Bft) 100,00 %
17.09.2015 11:56 17,2 C 18,3 C 16,7 C 82 % 0 lf 997,3 hPa 0,0 l/m 0 min 0 min 185 W/m 27,2 km/h (4 Bft) 100,00 %
17.09.2015 11:58 17,2 C 18,3 C 16,7 C 82 % 0 lf 997,4 hPa 0,0 l/m 0 min 0 min 145 W/m 25,1 km/h (4 Bft) 100,00 %
17.09.2015 12:00 17,2 C 18,3 C 16,1 C 82 % 0 lf 997,4 hPa 0,0 l/m 0 min 0 min 120 W/m 20,9 km/h (4 Bft) 97,87 %
17.09.2015 12:02 17,2 C 17,8 C 16,1 C 82 % 0 lf 997,7 hPa 0,0 l/m 0 min 0 min 126 W/m 29,3 km/h (5 Bft) 100,00 %
17.09.2015 12:06 17,3 C 17,2 C 15,6 C 82 % 2 lf 997,8 hPa 0,0 l/m 0 min 2 min 135 W/m 41,8 km/h (6 Bft) 98,95 %
17.09.2015 12:08 17,3 C 17,2 C 15,6 C 82 % 0 lf 997,7 hPa 0,0 l/m 0 min 0 min 124 W/m 35,6 km/h (5 Bft) 97,87 %
17.09.2015 12:10 17,3 C 17,8 C 15,6 C 82 % 0 lf 997,6 hPa 0,0 l/m 0 min 0 min 146 W/m 46,0 km/h (6 Bft) 97,87 %
17.09.2015 12:12 17,3 C 17,8 C 16,1 C 82 % 0 lf 997,5 hPa 0,0 l/m 0 min 0 min 147 W/m 41,8 km/h (6 Bft) 100,00 %
17.09.2015 12:14 17,3 C 17,8 C 16,1 C 82 % 0 lf 997,2 hPa 0,0 l/m 0 min 0 min 172 W/m 25,1 km/h (4 Bft) 100,00 %
17.09.2015 12:16 17,3 C 17,8 C 16,1 C 82 % 0 lf 997,1 hPa 0,0 l/m 0 min 0 min 202 W/m 43,9 km/h (6 Bft) 100,00 %
17.09.2015 12:18 17,3 C 18,3 C 16,1 C 81 % 0 lf 997,1 hPa 0,0 l/m 0 min 0 min 223 W/m 37,7 km/h (5 Bft) 95,74 %
17.09.2015 12:20 17,2 C 18,3 C 16,7 C 81 % 0 lf 997,1 hPa 0,0 l/m 0 min 0 min 228 W/m 35,6 km/h (5 Bft) 97,87 %
17.09.2015 12:22 17,3 C 18,3 C 16,7 C 81 % 0 lf 997,3 hPa 0,0 l/m 0 min 0 min 227 W/m 29,3 km/h (5 Bft) 100,00 %
17.09.2015 12:24 17,3 C 18,3 C 16,7 C 81 % 0 lf 997,5 hPa 0,0 l/m 0 min 0 min 195 W/m 25,1 km/h (4 Bft) 97,87 %
17.09.2015 12:26 17,3 C 18,3 C 16,7 C 81 % 0 lf 997,5 hPa 0,0 l/m 0 min 0 min 166 W/m 33,5 km/h (5 Bft) 95,65 %
17.09.2015 12:28 17,3 C 18,3 C 16,1 C 81 % 0 lf 997,9 hPa 0,0 l/m 0 min 0 min 152 W/m 29,3 km/h (5 Bft) 97,87 %
17.09.2015 12:30 17,3 C 17,8 C 16,1 C 81 % 0 lf 998,0 hPa 0,0 l/m 0 min 0 min 129 W/m 37,7 km/h (5 Bft) 100,00 %
17.09.2015 12:32 17,3 C 17,8 C 16,1 C 81 % 0 lf 998,0 hPa 0,0 l/m 0 min 0 min 109 W/m 27,2 km/h (4 Bft) 100,00 %
17.09.2015 12:34 17,3 C 17,8 C 16,1 C 81 % 0 lf 998,0 hPa 0,0 l/m 0 min 0 min 106 W/m 25,1 km/h (4 Bft) 100,00 %
17.09.2015 12:36 17,3 C 17,8 C 16,1 C 81 % 0 lf 997,9 hPa 0,0 l/m 0 min 0 min 123 W/m 29,3 km/h (5 Bft) 97,87 %
17.09.2015 12:38 17,3 C 17,8 C 16,1 C 81 % 0 lf 997,6 hPa 0,0 l/m 0 min 0 min 180 W/m 29,3 km/h (5 Bft) 97,87 %
17.09.2015 12:40 17,3 C 18,3 C 16,1 C 81 % 0 lf 997,5 hPa 0,0 l/m 0 min 0 min 209 W/m 27,2 km/h (4 Bft) 95,74 %
17.09.2015 12:42 17,3 C 18,3 C 16,7 C 81 % 0 lf 997,4 hPa 0,0 l/m 0 min 0 min 209 W/m 23,0 km/h (4 Bft) 95,83 %
17.09.2015 12:44 17,3 C 18,3 C 16,7 C 81 % 0 lf 997,3 hPa 0,0 l/m 0 min 0 min 205 W/m 35,6 km/h (5 Bft) 97,87 %
17.09.2015 12:46 17,3 C 18,3 C 16,7 C 80 % 0 lf 997,3 hPa 0,0 l/m 0 min 0 min 197 W/m 43,9 km/h (6 Bft) 95,74 %
17.09.2015 12:48 17,3 C 18,3 C 16,1 C 79 % 0 lf 997,4 hPa 0,0 l/m 0 min 0 min 198 W/m 31,4 km/h (5 Bft) 97,83 %
17.09.2015 12:50 17,3 C 18,3 C 16,1 C 79 % 0 lf 997,6 hPa 0,0 l/m 0 min 0 min 194 W/m 27,2 km/h (4 Bft) 97,87 %
17.09.2015 12:52 17,3 C 18,3 C 16,1 C 79 % 0 lf 997,6 hPa 0,0 l/m 0 min 0 min 175 W/m 31,4 km/h (5 Bft) 95,83 %
17.09.2015 12:54 17,2 C 17,8 C 16,1 C 79 % 0 lf 997,7 hPa 0,0 l/m 0 min 0 min 141 W/m 33,5 km/h (5 Bft) 97,83 %
17.09.2015 12:56 17,2 C 17,8 C 16,1 C 79 % 0 lf 997,8 hPa 0,0 l/m 0 min 0 min 91 W/m 39,7 km/h (6 Bft) 91,49 %
17.09.2015 12:58 17,2 C 17,8 C 15,6 C 79 % 0 lf 997,6 hPa 0,0 l/m 0 min 0 min 88 W/m 33,5 km/h (5 Bft) 93,62 %
17.09.2015 13:00 17,2 C 17,2 C 15,6 C 79 % 0 lf 997,7 hPa 0,0 l/m 0 min 0 min 82 W/m 25,1 km/h (4 Bft) 97,87 %
17.09.2015 13:02 17,2 C 17,2 C 15,6 C 79 % 0 lf 997,9 hPa 0,0 l/m 0 min 0 min 88 W/m 25,1 km/h (4 Bft) 95,74 %
17.09.2015 13:04 17,2 C 17,8 C 15,6 C 79 % 0 lf 998,0 hPa 0,0 l/m 0 min 0 min 95 W/m 27,2 km/h (4 Bft) 95,65 %
17.09.2015 13:06 17,2 C 17,8 C 15,6 C 80 % 0 lf 998,0 hPa 0,0 l/m 0 min 0 min 100 W/m 31,4 km/h (5 Bft) 97,87 %
17.09.2015 13:08 17,2 C 17,8 C 15,6 C 80 % 0 lf 998,1 hPa 0,0 l/m 0 min 0 min 86 W/m 31,4 km/h (5 Bft) 95,74 %
17.09.2015 13:10 17,1 C 17,2 C 15,6 C 80 % 0 lf 998,0 hPa 0,0 l/m 0 min 0 min 82 W/m 31,4 km/h (5 Bft) 93,62 %
17.09.2015 13:12 17,1 C 17,2 C 15,6 C 80 % 0 lf 997,9 hPa 0,0 l/m 0 min 0 min 112 W/m 39,7 km/h (6 Bft) 95,74 %
17.09.2015 13:14 17,1 C 17,8 C 16,1 C 80 % 0 lf 997,7 hPa 0,0 l/m 0 min 0 min 156 W/m 18,8 km/h (3 Bft) 93,62 %
17.09.2015 13:16 17,1 C 17,8 C 16,1 C 80 % 0 lf 997,7 hPa 0,0 l/m 0 min 0 min 173 W/m 29,3 km/h (5 Bft) 95,65 %
17.09.2015 13:18 17,1 C 17,8 C 16,1 C 80 % 0 lf 997,7 hPa 0,0 l/m 0 min 0 min 168 W/m 27,2 km/h (4 Bft) 95,74 %
17.09.2015 13:20 17,1 C 17,8 C 16,1 C 80 % 0 lf 997,6 hPa 0,0 l/m 0 min 0 min 184 W/m 35,6 km/h (5 Bft) 91,49 %
17.09.2015 13:22 17,2 C 18,3 C 16,1 C 80 % 0 lf 997,9 hPa 0,0 l/m 0 min 0 min 192 W/m 35,6 km/h (5 Bft) 94,34 %
17.09.2015 13:24 17,2 C 18,3 C 16,7 C 80 % 0 lf 997,9 hPa 0,0 l/m 0 min 0 min 186 W/m 25,1 km/h (4 Bft) 95,74 %
17.09.2015 13:26 17,2 C 18,3 C 16,7 C 80 % 0 lf 997,8 hPa 0,0 l/m 0 min 0 min 205 W/m 41,8 km/h (6 Bft) 97,87 %
17.09.2015 13:28 17,2 C 18,3 C 16,7 C 80 % 0 lf 997,9 hPa 0,0 l/m 0 min 0 min 196 W/m 33,5 km/h (5 Bft) 95,74 %
17.09.2015 13:30 17,2 C 18,3 C 16,7 C 80 % 0 lf 997,9 hPa 0,0 l/m 0 min 0 min 198 W/m 33,5 km/h (5 Bft) 97,87 %
17.09.2015 13:32 17,3 C 18,3 C 16,7 C 80 % 0 lf 998,0 hPa 0,0 l/m 0 min 0 min 232 W/m 31,4 km/h (5 Bft) 95,65 %
17.09.2015 13:34 17,3 C 18,3 C 16,7 C 80 % 0 lf 998,4 hPa 0,0 l/m 0 min 0 min 190 W/m 37,7 km/h (5 Bft) 95,74 %
17.09.2015 13:36 17,3 C 17,8 C 16,7 C 79 % 0 lf 998,5 hPa 0,0 l/m 0 min 0 min 162 W/m 33,5 km/h (5 Bft) 95,74 %
17.09.2015 13:38 17,3 C 17,8 C 16,7 C 79 % 0 lf 998,5 hPa 0,0 l/m 0 min 0 min 130 W/m 35,6 km/h (5 Bft) 100,00 %
17.09.2015 13:40 17,3 C 17,8 C 16,1 C 79 % 0 lf 998,4 hPa 0,0 l/m 0 min 0 min 105 W/m 29,3 km/h (5 Bft) 95,74 %
17.09.2015 13:42 17,3 C 17,8 C 16,1 C 80 % 0 lf 998,5 hPa 0,0 l/m 0 min 0 min 119 W/m 29,3 km/h (5 Bft) 97,87 %
17.09.2015 13:44 17,3 C 17,8 C 16,1 C 80 % 0 lf 998,2 hPa 0,0 l/m 0 min 0 min 111 W/m 27,2 km/h (4 Bft) 97,83 %
17.09.2015 13:46 17,3 C 17,8 C 16,1 C 80 % 0 lf 998,4 hPa 0,0 l/m 0 min 0 min 75 W/m 33,5 km/h (5 Bft) 97,22 %
17.09.2015 13:48 17,3 C 17,2 C 15,6 C 80 % 0 lf 998,5 hPa 0,0 l/m 0 min 0 min 60 W/m 29,3 km/h (5 Bft) 96,55 %
17.09.2015 13:50 17,3 C 17,2 C 15,6 C 80 % 2 lf 998,6 hPa 0,0 l/m 0 min 0 min 60 W/m 25,1 km/h (4 Bft) 97,22 %
17.09.2015 13:52 17,3 C 16,7 C 15,0 C 80 % 8 lf 998,7 hPa 0,0 l/m 0 min 2 min 63 W/m 31,4 km/h (5 Bft) 95,74 %
17.09.2015 13:54 17,2 C 15,6 C 14,4 C 80 % 15 lf 998,8 hPa 0,0 l/m 0 min 2 min 79 W/m 39,7 km/h (6 Bft) 97,87 %
17.09.2015 13:56 17,2 C 15,6 C 13,9 C 81 % 15 lf 998,6 hPa 0,0 l/m 0 min 2 min 90 W/m 31,4 km/h (5 Bft) 93,75 %
17.09.2015 13:58 17,1 C 15,6 C 13,9 C 82 % 13 lf 998,5 hPa 0,0 l/m 0 min 2 min 98 W/m 25,1 km/h (4 Bft) 97,14 %
17.09.2015 14:00 17,1 C 16,1 C 14,4 C 82 % 13 lf 998,6 hPa 0,0 l/m 0 min 2 min 160 W/m 20,9 km/h (4 Bft) 96,72 %
17.09.2015 14:02 17,0 C 16,7 C 14,4 C 83 % 7 lf 998,6 hPa 0,0 l/m 0 min 2 min 259 W/m 27,2 km/h (4 Bft) 95,74 %
17.09.2015 14:04 17,0 C 17,2 C 15,0 C 84 % 2 lf 998,6 hPa 0,0 l/m 0 min 0 min 270 W/m 27,2 km/h (4 Bft) 93,62 %
17.09.2015 14:06 16,9 C 17,2 C 15,0 C 84 % 0 lf 998,8 hPa 0,0 l/m 0 min 0 min 224 W/m 25,1 km/h (4 Bft) 95,74 %
17.09.2015 14:08 16,9 C 17,2 C 15,0 C 84 % 0 lf 998,7 hPa 0,0 l/m 0 min 0 min 202 W/m 23,0 km/h (4 Bft) 95,74 %
17.09.2015 14:10 16,9 C 17,2 C 15,0 C 84 % 0 lf 998,8 hPa 0,0 l/m 0 min 0 min 144 W/m 20,9 km/h (4 Bft) 95,65 %
17.09.2015 14:12 16,9 C 17,2 C 15,6 C 84 % 0 lf 999,0 hPa 0,0 l/m 0 min 0 min 139 W/m 23,0 km/h (4 Bft) 93,62 %
17.09.2015 14:14 16,9 C 17,8 C 15,6 C 85 % 0 lf 998,9 hPa 0,0 l/m 0 min 0 min 166 W/m 20,9 km/h (4 Bft) 95,74 %
17.09.2015 14:16 16,9 C 18,3 C 15,6 C 85 % 0 lf 998,8 hPa 0,0 l/m 0 min 0 min 204 W/m 23,0 km/h (4 Bft) 95,74 %
17.09.2015 14:18 16,9 C 18,3 C 16,1 C 85 % 0 lf 998,8 hPa 0,0 l/m 0 min 0 min 195 W/m 31,4 km/h (5 Bft) 93,62 %
17.09.2015 14:20 16,9 C 18,3 C 16,1 C 84 % 0 lf 998,8 hPa 0,0 l/m 0 min 0 min 174 W/m 35,6 km/h (5 Bft) 91,49 %
17.09.2015 14:22 16,9 C 18,3 C 16,1 C 84 % 0 lf 998,9 hPa 0,0 l/m 0 min 0 min 149 W/m 16,7 km/h (3 Bft) 93,48 %
17.09.2015 14:24 16,9 C 18,3 C 16,1 C 84 % 0 lf 999,0 hPa 0,0 l/m 0 min 0 min 138 W/m 37,7 km/h (5 Bft) 95,74 %
17.09.2015 14:26 16,9 C 18,3 C 16,1 C 84 % 0 lf 998,9 hPa 0,0 l/m 0 min 0 min 133 W/m 33,5 km/h (5 Bft) 93,62 %
17.09.2015 14:28 16,9 C 17,8 C 16,1 C 83 % 0 lf 998,8 hPa 0,0 l/m 0 min 0 min 142 W/m 39,7 km/h (6 Bft) 95,74 %
17.09.2015 14:30 16,9 C 17,8 C 15,6 C 83 % 0 lf 998,8 hPa 0,0 l/m 0 min 0 min 92 W/m 27,2 km/h (4 Bft) 93,62 %
17.09.2015 14:32 16,9 C 17,8 C 15,6 C 83 % 0 lf 998,9 hPa 0,0 l/m 0 min 0 min 63 W/m 23,0 km/h (4 Bft) 93,48 %
17.09.2015 14:34 16,9 C 17,2 C 15,6 C 83 % 0 lf 998,9 hPa 0,0 l/m 0 min 0 min 39 W/m 23,0 km/h (4 Bft) 93,75 %
17.09.2015 14:36 16,9 C 16,7 C 15,0 C 83 % 1 lf 998,9 hPa 0,0 l/m 0 min 0 min 27 W/m 37,7 km/h (5 Bft) 95,74 %
17.09.2015 14:38 16,9 C 14,4 C 13,9 C 84 % 15 lf 999,0 hPa 0,4 l/m 0 min 2 min 21 W/m 29,3 km/h (5 Bft) 95,65 %
17.09.2015 14:40 16,8 C 14,4 C 13,3 C 84 % 15 lf 999,4 hPa 0,2 l/m 0 min 2 min 21 W/m 18,8 km/h (3 Bft) 95,74 %
17.09.2015 14:42 16,8 C 14,4 C 13,3 C 85 % 15 lf 999,3 hPa 0,4 l/m 0 min 2 min 21 W/m 18,8 km/h (3 Bft) 95,74 %
17.09.2015 14:44 16,7 C 14,4 C 13,3 C 85 % 15 lf 999,4 hPa 0,6 l/m 0 min 2 min 23 W/m 20,9 km/h (4 Bft) 95,74 %
17.09.2015 14:46 16,6 C 14,4 C 13,3 C 86 % 15 lf 999,4 hPa 0,6 l/m 0 min 2 min 31 W/m 27,2 km/h (4 Bft) 97,87 %
17.09.2015 14:48 16,5 C 14,4 C 13,3 C 87 % 15 lf 999,3 hPa 0,2 l/m 0 min 2 min 44 W/m 23,0 km/h (4 Bft) 95,74 %
17.09.2015 14:50 16,4 C 14,4 C 13,3 C 87 % 15 lf 999,1 hPa 0,0 l/m 0 min 2 min 77 W/m 29,3 km/h (5 Bft) 97,83 %
17.09.2015 14:52 16,3 C 15,0 C 13,3 C 87 % 15 lf 999,1 hPa 0,0 l/m 0 min 2 min 159 W/m 27,2 km/h (4 Bft) 97,87 %
17.09.2015 14:54 16,3 C 15,6 C 13,9 C 88 % 15 lf 999,3 hPa 0,0 l/m 0 min 0 min 219 W/m 25,1 km/h (4 Bft) 97,87 %
17.09.2015 14:56 16,2 C 16,1 C 13,9 C 89 % 15 lf 999,3 hPa 0,0 l/m 2 min 0 min 322 W/m 20,9 km/h (4 Bft) 93,62 %
17.09.2015 14:58 16,2 C 16,7 C 14,4 C 89 % 15 lf 999,3 hPa 0,0 l/m 2 min 0 min 432 W/m 27,2 km/h (4 Bft) 95,74 %
17.09.2015 15:00 16,3 C 17,2 C 14,4 C 90 % 15 lf 999,3 hPa 0,0 l/m 2 min 0 min 454 W/m 27,2 km/h (4 Bft) 93,62 %
17.09.2015 15:02 16,3 C 17,2 C 14,4 C 90 % 15 lf 999,5 hPa 0,0 l/m 0 min 0 min 263 W/m 12,6 km/h (3 Bft) 97,83 %
17.09.2015 15:04 16,3 C 17,2 C 15,0 C 91 % 15 lf 999,7 hPa 0,0 l/m 0 min 0 min 225 W/m 18,8 km/h (3 Bft) 100,00 %
17.09.2015 15:06 16,4 C 17,2 C 15,0 C 91 % 15 lf 999,7 hPa 0,0 l/m 0 min 0 min 293 W/m 18,8 km/h (3 Bft) 97,87 %
17.09.2015 15:08 16,4 C 17,2 C 15,0 C 91 % 15 lf 999,6 hPa 0,0 l/m 0 min 0 min 282 W/m 33,5 km/h (5 Bft) 97,87 %
17.09.2015 15:10 16,4 C 16,7 C 14,4 C 91 % 15 lf 999,6 hPa 0,0 l/m 2 min 0 min 298 W/m 39,7 km/h (6 Bft) 100,00 %
17.09.2015 15:12 16,4 C 16,7 C 14,4 C 91 % 15 lf 999,6 hPa 0,0 l/m 0 min 0 min 233 W/m 18,8 km/h (3 Bft) 97,87 %
17.09.2015 15:14 16,4 C 16,1 C 14,4 C 91 % 15 lf 999,6 hPa 0,0 l/m 0 min 0 min 179 W/m 35,6 km/h (5 Bft) 97,83 %
17.09.2015 15:16 16,4 C 16,1 C 13,9 C 90 % 15 lf 999,5 hPa 0,0 l/m 0 min 0 min 143 W/m 29,3 km/h (5 Bft) 97,87 %
17.09.2015 15:18 16,4 C 16,1 C 14,4 C 90 % 15 lf 999,6 hPa 0,0 l/m 0 min 0 min 184 W/m 25,1 km/h (4 Bft) 95,74 %
17.09.2015 15:20 16,3 C 15,6 C 13,9 C 90 % 14 lf 999,7 hPa 0,0 l/m 0 min 0 min 185 W/m 33,5 km/h (5 Bft) 95,74 %
17.09.2015 15:22 16,3 C 15,6 C 13,9 C 90 % 14 lf 999,7 hPa 0,0 l/m 0 min 0 min 100 W/m 29,3 km/h (5 Bft) 97,87 %
17.09.2015 15:24 16,3 C 15,6 C 13,9 C 89 % 13 lf 999,7 hPa 0,0 l/m 0 min 0 min 52 W/m 23,0 km/h (4 Bft) 95,74 %
17.09.2015 15:26 16,3 C 15,6 C 13,9 C 89 % 12 lf 999,8 hPa 0,0 l/m 0 min 0 min 41 W/m 25,1 km/h (4 Bft) 95,65 %
17.09.2015 15:28 16,2 C 15,0 C 13,9 C 89 % 11 lf 999,8 hPa 0,0 l/m 0 min 2 min 46 W/m 23,0 km/h (4 Bft) 95,74 %
17.09.2015 15:30 16,2 C 15,0 C 13,3 C 89 % 10 lf 999,8 hPa 0,0 l/m 0 min 2 min 57 W/m 37,7 km/h (5 Bft) 92,45 %
17.09.2015 15:32 16,2 C 15,6 C 13,9 C 89 % 7 lf 999,8 hPa 0,0 l/m 0 min 0 min 123 W/m 23,0 km/h (4 Bft) 95,74 %
17.09.2015 15:34 16,2 C 15,6 C 13,9 C 89 % 4 lf 999,8 hPa 0,0 l/m 0 min 0 min 141 W/m 23,0 km/h (4 Bft) 91,43 %
17.09.2015 15:36 16,2 C 15,6 C 13,9 C 89 % 4 lf 1000,2 hPa 0,0 l/m 0 min 0 min 82 W/m 31,4 km/h (5 Bft) 93,22 %
17.09.2015 15:38 16,1 C 15,6 C 13,3 C 89 % 3 lf 1000,2 hPa 0,0 l/m 0 min 0 min 50 W/m 25,1 km/h (4 Bft) 95,74 %
17.09.2015 15:40 16,1 C 15,0 C 13,3 C 89 % 2 lf 1000,2 hPa 0,0 l/m 0 min 0 min 57 W/m 25,1 km/h (4 Bft) 95,65 %
17.09.2015 15:42 16,1 C 15,0 C 13,9 C 89 % 2 lf 1000,1 hPa 0,0 l/m 0 min 0 min 82 W/m 23,0 km/h (4 Bft) 93,62 %
17.09.2015 15:44 16,1 C 15,6 C 13,9 C 88 % 1 lf 1000,2 hPa 0,0 l/m 0 min 0 min 97 W/m 23,0 km/h (4 Bft) 97,87 %
17.09.2015 15:46 16,1 C 15,6 C 13,3 C 88 % 0 lf 1000,1 hPa 0,0 l/m 0 min 0 min 103 W/m 29,3 km/h (5 Bft) 95,74 %
17.09.2015 15:48 16,1 C 15,6 C 13,9 C 88 % 0 lf 1000,0 hPa 0,0 l/m 0 min 0 min 116 W/m 27,2 km/h (4 Bft) 95,74 %
17.09.2015 15:50 16,1 C 15,6 C 13,9 C 88 % 0 lf 999,9 hPa 0,0 l/m 0 min 0 min 116 W/m 23,0 km/h (4 Bft) 97,87 %
17.09.2015 15:52 16,1 C 15,6 C 13,9 C 88 % 0 lf 1000,1 hPa 0,0 l/m 0 min 0 min 142 W/m 27,2 km/h (4 Bft) 97,83 %
17.09.2015 15:54 16,1 C 15,6 C 13,9 C 88 % 0 lf 1000,2 hPa 0,0 l/m 0 min 0 min 151 W/m 23,0 km/h (4 Bft) 91,49 %
17.09.2015 15:56 16,1 C 15,6 C 13,9 C 88 % 0 lf 1000,2 hPa 0,0 l/m 0 min 0 min 165 W/m 23,0 km/h (4 Bft) 97,87 %
17.09.2015 15:58 16,1 C 15,6 C 13,9 C 88 % 0 lf 1000,2 hPa 0,0 l/m 0 min 0 min 158 W/m 29,3 km/h (5 Bft) 95,74 %
17.09.2015 16:00 16,1 C 16,1 C 13,9 C 88 % 0 lf 1000,2 hPa 0,0 l/m 0 min 0 min 170 W/m 18,8 km/h (3 Bft) 97,87 %
17.09.2015 16:02 16,2 C 16,1 C 13,9 C 88 % 0 lf 1000,2 hPa 0,0 l/m 0 min 0 min 134 W/m 25,1 km/h (4 Bft) 93,62 %
17.09.2015 16:04 16,2 C 15,6 C 13,9 C 88 % 0 lf 1000,2 hPa 0,0 l/m 0 min 0 min 131 W/m 20,9 km/h (4 Bft) 95,65 %
17.09.2015 16:06 16,2 C 15,6 C 13,9 C 88 % 0 lf 1000,3 hPa 0,0 l/m 0 min 0 min 114 W/m 16,7 km/h (3 Bft) 97,87 %
17.09.2015 16:08 16,3 C 16,1 C 13,9 C 88 % 0 lf 1000,4 hPa 0,0 l/m 0 min 0 min 133 W/m 18,8 km/h (3 Bft) 97,87 %
17.09.2015 16:10 16,3 C 16,1 C 13,9 C 88 % 0 lf 1000,5 hPa 0,0 l/m 0 min 0 min 156 W/m 31,4 km/h (5 Bft) 93,62 %
17.09.2015 16:12 16,3 C 16,7 C 13,9 C 88 % 0 lf 1000,6 hPa 0,0 l/m 0 min 0 min 158 W/m 18,8 km/h (3 Bft) 93,62 %
17.09.2015 16:14 16,3 C 17,8 C 14,4 C 88 % 0 lf 1000,6 hPa 0,0 l/m 2 min 0 min 250 W/m 27,2 km/h (4 Bft) 100,00 %
17.09.2015 16:16 16,4 C 17,8 C 14,4 C 88 % 0 lf 1000,6 hPa 0,0 l/m 0 min 0 min 222 W/m 25,1 km/h (4 Bft) 100,00 %
17.09.2015 16:18 16,4 C 18,3 C 14,4 C 88 % 0 lf 1000,6 hPa 0,0 l/m 0 min 0 min 213 W/m 29,3 km/h (5 Bft) 95,74 %
17.09.2015 16:20 16,5 C 18,3 C 14,4 C 88 % 0 lf 1000,5 hPa 0,0 l/m 0 min 0 min 227 W/m 37,7 km/h (5 Bft) 97,87 %
17.09.2015 16:22 16,5 C 18,3 C 14,4 C 87 % 0 lf 1000,6 hPa 0,0 l/m 0 min 0 min 230 W/m 35,6 km/h (5 Bft) 100,00 %
17.09.2015 16:24 16,6 C 17,8 C 13,9 C 86 % 0 lf 1000,6 hPa 0,0 l/m 0 min 0 min 159 W/m 27,2 km/h (4 Bft) 100,00 %
17.09.2015 16:26 16,6 C 17,8 C 13,9 C 86 % 0 lf 1000,7 hPa 0,0 l/m 0 min 0 min 120 W/m 29,3 km/h (5 Bft) 97,87 %
17.09.2015 16:28 16,7 C 17,8 C 13,9 C 86 % 0 lf 1000,8 hPa 0,0 l/m 0 min 0 min 100 W/m 23,0 km/h (4 Bft) 97,83 %
17.09.2015 16:30 16,7 C 17,2 C 13,9 C 86 % 0 lf 1001,0 hPa 0,0 l/m 0 min 0 min 65 W/m 33,5 km/h (5 Bft) 97,87 %
17.09.2015 16:32 16,7 C 16,1 C 13,3 C 86 % 15 lf 1001,2 hPa 0,0 l/m 0 min 2 min 30 W/m 35,6 km/h (5 Bft) 95,74 %
17.09.2015 16:34 16,6 C 15,0 C 13,3 C 86 % 15 lf 1001,4 hPa 0,2 l/m 0 min 2 min 23 W/m 31,4 km/h (5 Bft) 97,87 %
17.09.2015 16:36 16,6 C 14,4 C 13,3 C 86 % 15 lf 1001,5 hPa 0,2 l/m 0 min 2 min 30 W/m 29,3 km/h (5 Bft) 100,00 %
17.09.2015 16:38 16,5 C 14,4 C 13,3 C 87 % 15 lf 1001,5 hPa 0,6 l/m 0 min 2 min 40 W/m 46,0 km/h (6 Bft) 100,00 %
17.09.2015 16:40 16,4 C 14,4 C 13,3 C 87 % 15 lf 1001,5 hPa 0,4 l/m 0 min 2 min 39 W/m 39,7 km/h (6 Bft) 100,00 %
17.09.2015 16:42 16,2 C 14,4 C 13,3 C 88 % 15 lf 1001,7 hPa 0,8 l/m 0 min 2 min 37 W/m 31,4 km/h (5 Bft) 98,28 %
17.09.2015 16:44 16,1 C 14,4 C 13,3 C 88 % 15 lf 1001,7 hPa 0,2 l/m 0 min 2 min 60 W/m 41,8 km/h (6 Bft) 100,00 %
17.09.2015 16:46 15,9 C 14,4 C 13,3 C 89 % 15 lf 1001,8 hPa 0,2 l/m 0 min 2 min 91 W/m 31,4 km/h (5 Bft) 95,74 %
17.09.2015 16:48 15,7 C 14,4 C 13,3 C 90 % 15 lf 1001,8 hPa 0,0 l/m 0 min 2 min 115 W/m 33,5 km/h (5 Bft) 97,87 %
17.09.2015 16:50 15,6 C 14,4 C 13,3 C 90 % 15 lf 1001,9 hPa 0,0 l/m 0 min 2 min 109 W/m 41,8 km/h (6 Bft) 97,87 %
17.09.2015 16:52 15,5 C 14,4 C 13,3 C 91 % 15 lf 1001,9 hPa 0,0 l/m 0 min 2 min 105 W/m 37,7 km/h (5 Bft) 94,29 %
17.09.2015 16:54 15,4 C 14,4 C 13,3 C 91 % 15 lf 1002,0 hPa 0,0 l/m 0 min 2 min 110 W/m 33,5 km/h (5 Bft) 94,83 %
17.09.2015 16:56 15,4 C 14,4 C 13,3 C 91 % 15 lf 1001,9 hPa 0,0 l/m 0 min 2 min 107 W/m 29,3 km/h (5 Bft) 97,87 %
17.09.2015 16:58 15,4 C 14,4 C 13,3 C 92 % 15 lf 1002,0 hPa 0,0 l/m 0 min 2 min 96 W/m 18,8 km/h (3 Bft) 97,87 %
17.09.2015 17:00 15,3 C 14,4 C 13,3 C 92 % 15 lf 1002,1 hPa 0,0 l/m 0 min 2 min 79 W/m 31,4 km/h (5 Bft) 97,87 %
17.09.2015 17:02 15,3 C 14,4 C 13,3 C 92 % 15 lf 1002,1 hPa 0,0 l/m 0 min 2 min 55 W/m 27,2 km/h (4 Bft) 95,65 %
17.09.2015 17:04 15,3 C 14,4 C 13,3 C 92 % 15 lf 1002,1 hPa 0,0 l/m 0 min 2 min 56 W/m 16,7 km/h (3 Bft) 97,87 %
17.09.2015 17:06 15,2 C 14,4 C 13,3 C 93 % 15 lf 1002,1 hPa 0,0 l/m 0 min 2 min 52 W/m 27,2 km/h (4 Bft) 95,74 %
17.09.2015 17:08 15,2 C 14,4 C 13,3 C 93 % 15 lf 1002,2 hPa 0,2 l/m 0 min 2 min 51 W/m 25,1 km/h (4 Bft) 95,74 %
17.09.2015 17:10 15,2 C 14,4 C 13,3 C 93 % 15 lf 1002,1 hPa 0,0 l/m 0 min 2 min 46 W/m 31,4 km/h (5 Bft) 95,74 %
17.09.2015 17:12 15,1 C 14,4 C 13,3 C 93 % 15 lf 1002,2 hPa 0,0 l/m 0 min 2 min 45 W/m 18,8 km/h (3 Bft) 95,74 %
17.09.2015 17:14 15,1 C 14,4 C 13,3 C 93 % 15 lf 1002,2 hPa 0,0 l/m 0 min 2 min 44 W/m 27,2 km/h (4 Bft) 95,65 %
17.09.2015 17:16 15,1 C 14,4 C 13,3 C 93 % 15 lf 1002,2 hPa 0,0 l/m 0 min 2 min 42 W/m 18,8 km/h (3 Bft) 95,74 %
17.09.2015 17:18 15,0 C 14,4 C 13,3 C 94 % 15 lf 1002,3 hPa 0,0 l/m 0 min 2 min 37 W/m 20,9 km/h (4 Bft) 95,74 %
17.09.2015 17:20 14,9 C 14,4 C 13,3 C 93 % 15 lf 1002,4 hPa 0,2 l/m 0 min 2 min 44 W/m 31,4 km/h (5 Bft) 95,74 %
17.09.2015 17:22 14,9 C 13,9 C 12,8 C 94 % 15 lf 1002,4 hPa 0,0 l/m 0 min 2 min 43 W/m 33,5 km/h (5 Bft) 95,74 %
17.09.2015 17:24 14,9 C 13,9 C 12,8 C 94 % 15 lf 1002,4 hPa 0,0 l/m 0 min 2 min 42 W/m 31,4 km/h (5 Bft) 94,29 %
17.09.2015 17:26 14,8 C 13,9 C 12,8 C 94 % 15 lf 1002,5 hPa 0,0 l/m 0 min 2 min 38 W/m 14,6 km/h (3 Bft) 96,55 %
17.09.2015 17:28 14,8 C 13,9 C 12,8 C 94 % 15 lf 1002,5 hPa 0,0 l/m 0 min 2 min 40 W/m 16,7 km/h (3 Bft) 95,74 %
17.09.2015 17:30 14,8 C 13,9 C 12,8 C 94 % 15 lf 1002,6 hPa 0,0 l/m 0 min 2 min 34 W/m 18,8 km/h (3 Bft) 93,62 %
17.09.2015 17:32 14,8 C 13,9 C 12,8 C 94 % 15 lf 1002,7 hPa 0,0 l/m 0 min 2 min 33 W/m 18,8 km/h (3 Bft) 91,49 %
17.09.2015 17:34 14,7 C 13,9 C 12,8 C 94 % 15 lf 1002,8 hPa 0,0 l/m 0 min 2 min 30 W/m 23,0 km/h (4 Bft) 95,74 %
17.09.2015 17:36 14,7 C 13,9 C 12,8 C 94 % 15 lf 1002,9 hPa 0,0 l/m 0 min 2 min 26 W/m 20,9 km/h (4 Bft) 97,87 %
17.09.2015 17:38 14,6 C 13,9 C 12,8 C 94 % 15 lf 1002,9 hPa 0,2 l/m 0 min 2 min 29 W/m 14,6 km/h (3 Bft) 97,83 %
17.09.2015 17:40 14,6 C 13,9 C 12,8 C 94 % 15 lf 1003,0 hPa 0,0 l/m 0 min 2 min 36 W/m 23,0 km/h (4 Bft) 97,87 %
17.09.2015 17:42 14,5 C 13,9 C 12,8 C 94 % 15 lf 1003,0 hPa 0,0 l/m 0 min 2 min 47 W/m 31,4 km/h (5 Bft) 97,87 %
17.09.2015 17:44 14,4 C 13,9 C 12,8 C 94 % 15 lf 1003,1 hPa 0,2 l/m 0 min 2 min 56 W/m 29,3 km/h (5 Bft) 97,87 %
17.09.2015 17:46 14,4 C 13,9 C 12,8 C 95 % 15 lf 1003,1 hPa 0,0 l/m 0 min 2 min 66 W/m 29,3 km/h (5 Bft) 95,74 %
17.09.2015 17:48 14,3 C 13,9 C 12,8 C 94 % 15 lf 1003,1 hPa 0,0 l/m 0 min 2 min 82 W/m 23,0 km/h (4 Bft) 97,87 %
17.09.2015 17:50 14,3 C 13,9 C 12,8 C 95 % 15 lf 1003,2 hPa 0,0 l/m 0 min 2 min 100 W/m 16,7 km/h (3 Bft) 97,83 %
17.09.2015 17:52 14,3 C 13,9 C 12,8 C 95 % 15 lf 1003,3 hPa 0,0 l/m 0 min 2 min 101 W/m 18,8 km/h (3 Bft) 93,62 %
17.09.2015 17:54 14,3 C 13,9 C 12,8 C 95 % 15 lf 1003,4 hPa 0,0 l/m 0 min 2 min 90 W/m 27,2 km/h (4 Bft) 97,87 %
17.09.2015 17:56 14,3 C 13,9 C 12,8 C 95 % 15 lf 1003,5 hPa 0,0 l/m 0 min 2 min 71 W/m 20,9 km/h (4 Bft) 97,87 %
17.09.2015 17:58 14,3 C 13,9 C 12,8 C 95 % 15 lf 1003,5 hPa 0,0 l/m 0 min 2 min 59 W/m 23,0 km/h (4 Bft) 97,87 %
17.09.2015 18:00 14,3 C 13,9 C 12,8 C 95 % 15 lf 1003,6 hPa 0,0 l/m 0 min 2 min 47 W/m 20,9 km/h (4 Bft) 100,00 %
17.09.2015 18:02 14,3 C 13,9 C 12,8 C 95 % 15 lf 1003,6 hPa 0,0 l/m 0 min 0 min 42 W/m 16,7 km/h (3 Bft) 93,48 %
17.09.2015 18:04 14,2 C 13,9 C 12,8 C 95 % 15 lf 1003,6 hPa 0,0 l/m 0 min 0 min 41 W/m 16,7 km/h (3 Bft) 94,59 %
17.09.2015 18:06 14,2 C 13,9 C 12,8 C 95 % 15 lf 1003,7 hPa 0,0 l/m 0 min 0 min 52 W/m 16,7 km/h (3 Bft) 97,83 %
17.09.2015 18:08 14,2 C 13,9 C 12,8 C 95 % 15 lf 1003,7 hPa 0,0 l/m 0 min 0 min 74 W/m 18,8 km/h (3 Bft) 97,87 %
17.09.2015 18:10 14,2 C 13,9 C 12,8 C 95 % 15 lf 1003,8 hPa 0,0 l/m 0 min 0 min 103 W/m 14,6 km/h (3 Bft) 94,00 %
17.09.2015 18:12 14,2 C 13,9 C 12,8 C 95 % 15 lf 1003,9 hPa 0,0 l/m 0 min 0 min 92 W/m 25,1 km/h (4 Bft) 97,87 %
17.09.2015 18:14 14,2 C 13,9 C 12,8 C 96 % 15 lf 1004,0 hPa 0,0 l/m 0 min 0 min 82 W/m 18,8 km/h (3 Bft) 93,62 %
17.09.2015 18:16 14,2 C 13,9 C 12,8 C 96 % 15 lf 1004,1 hPa 0,0 l/m 0 min 0 min 66 W/m 20,9 km/h (4 Bft) 97,83 %
17.09.2015 18:18 14,2 C 13,9 C 12,8 C 96 % 15 lf 1004,1 hPa 0,0 l/m 0 min 0 min 57 W/m 18,8 km/h (3 Bft) 93,62 %
17.09.2015 18:20 14,2 C 13,9 C 12,8 C 96 % 15 lf 1004,1 hPa 0,0 l/m 0 min 0 min 53 W/m 14,6 km/h (3 Bft) 91,49 %
17.09.2015 18:22 14,2 C 13,9 C 12,8 C 96 % 15 lf 1004,2 hPa 0,0 l/m 0 min 0 min 38 W/m 14,6 km/h (3 Bft) 95,74 %
17.09.2015 18:24 14,2 C 13,9 C 12,8 C 96 % 15 lf 1004,3 hPa 0,0 l/m 0 min 0 min 30 W/m 16,7 km/h (3 Bft) 91,49 %
17.09.2015 18:26 14,2 C 13,9 C 12,8 C 96 % 15 lf 1004,4 hPa 0,0 l/m 0 min 0 min 35 W/m 27,2 km/h (4 Bft) 91,30 %
17.09.2015 18:28 14,2 C 13,9 C 12,8 C 96 % 15 lf 1004,3 hPa 0,0 l/m 0 min 0 min 38 W/m 20,9 km/h (4 Bft) 93,62 %
17.09.2015 18:30 14,2 C 13,3 C 12,8 C 96 % 15 lf 1004,5 hPa 0,0 l/m 0 min 0 min 41 W/m 18,8 km/h (3 Bft) 93,62 %
17.09.2015 18:32 14,2 C 13,3 C 12,2 C 96 % 15 lf 1004,5 hPa 0,0 l/m 0 min 0 min 42 W/m 18,8 km/h (3 Bft) 93,62 %
17.09.2015 18:34 14,2 C 13,3 C 12,2 C 96 % 15 lf 1004,6 hPa 0,0 l/m 0 min 0 min 42 W/m 12,6 km/h (3 Bft) 95,74 %
17.09.2015 18:36 14,1 C 13,3 C 12,2 C 96 % 15 lf 1004,6 hPa 0,0 l/m 0 min 0 min 42 W/m 12,6 km/h (3 Bft) 93,62 %
17.09.2015 18:38 14,0 C 13,3 C 12,2 C 96 % 15 lf 1004,6 hPa 0,0 l/m 0 min 0 min 40 W/m 14,6 km/h (3 Bft) 89,36 %
17.09.2015 18:40 13,9 C 13,3 C 12,2 C 96 % 15 lf 1004,7 hPa 0,0 l/m 0 min 0 min 37 W/m 12,6 km/h (3 Bft) 97,83 %
17.09.2015 18:42 13,9 C 13,3 C 12,2 C 96 % 15 lf 1004,8 hPa 0,0 l/m 0 min 0 min 33 W/m 16,7 km/h (3 Bft) 93,62 %
17.09.2015 18:44 13,8 C 13,3 C 12,2 C 96 % 15 lf 1004,9 hPa 0,0 l/m 0 min 0 min 28 W/m 12,6 km/h (3 Bft) 91,49 %
17.09.2015 18:46 13,8 C 13,3 C 12,2 C 96 % 15 lf 1005,0 hPa 0,0 l/m 0 min 0 min 26 W/m 18,8 km/h (3 Bft) 97,87 %
17.09.2015 18:48 13,7 C 12,8 C 12,2 C 95 % 15 lf 1005,0 hPa 0,0 l/m 0 min 0 min 28 W/m 18,8 km/h (3 Bft) 95,74 %
17.09.2015 18:50 13,7 C 12,8 C 12,2 C 95 % 15 lf 1005,1 hPa 0,0 l/m 0 min 0 min 35 W/m 14,6 km/h (3 Bft) 93,62 %
17.09.2015 18:52 13,6 C 12,8 C 12,2 C 95 % 15 lf 1005,1 hPa 0,0 l/m 0 min 0 min 41 W/m 10,5 km/h (2 Bft) 95,65 %
17.09.2015 18:54 13,6 C 13,3 C 12,2 C 95 % 15 lf 1005,1 hPa 0,0 l/m 0 min 0 min 47 W/m 14,6 km/h (3 Bft) 91,49 %
17.09.2015 18:56 13,6 C 13,3 C 12,2 C 96 % 15 lf 1005,2 hPa 0,0 l/m 0 min 0 min 49 W/m 16,7 km/h (3 Bft) 97,87 %
17.09.2015 18:58 13,6 C 13,3 C 12,2 C 96 % 15 lf 1005,3 hPa 0,0 l/m 0 min 0 min 48 W/m 12,6 km/h (3 Bft) 97,87 %
17.09.2015 19:00 13,6 C 13,3 C 12,2 C 96 % 15 lf 1005,4 hPa 0,0 l/m 0 min 0 min 44 W/m 18,8 km/h (3 Bft) 95,74 %
17.09.2015 19:02 13,6 C 13,3 C 12,2 C 96 % 15 lf 1005,4 hPa 0,0 l/m 0 min 0 min 37 W/m 14,6 km/h (3 Bft) 91,30 %
17.09.2015 19:04 13,5 C 13,3 C 12,2 C 96 % 15 lf 1005,4 hPa 0,0 l/m 0 min 0 min 31 W/m 12,6 km/h (3 Bft) 93,62 %
17.09.2015 19:06 13,5 C 13,3 C 12,2 C 96 % 15 lf 1005,5 hPa 0,0 l/m 0 min 0 min 24 W/m 16,7 km/h (3 Bft) 97,87 %
17.09.2015 19:08 13,5 C 13,3 C 12,2 C 96 % 15 lf 1005,6 hPa 0,0 l/m 0 min 0 min 20 W/m 18,8 km/h (3 Bft) 95,74 %
17.09.2015 19:10 13,5 C 12,8 C 12,2 C 96 % 15 lf 1005,6 hPa 0,0 l/m 0 min 0 min 17 W/m 12,6 km/h (3 Bft) 93,62 %
17.09.2015 19:12 13,5 C 13,3 C 12,2 C 96 % 15 lf 1005,7 hPa 0,0 l/m 0 min 2 min 15 W/m 12,6 km/h (3 Bft) 97,87 %
17.09.2015 19:14 13,5 C 13,3 C 12,2 C 96 % 15 lf 1005,8 hPa 0,0 l/m 0 min 0 min 12 W/m 18,8 km/h (3 Bft) 97,83 %
17.09.2015 19:16 13,5 C 13,3 C 12,2 C 96 % 15 lf 1005,8 hPa 0,0 l/m 0 min 0 min 11 W/m 14,6 km/h (3 Bft) 97,87 %
17.09.2015 19:18 13,5 C 13,3 C 12,2 C 96 % 15 lf 1005,9 hPa 0,0 l/m 0 min 0 min 11 W/m 14,6 km/h (3 Bft) 95,74 %
17.09.2015 19:20 13,5 C 13,3 C 12,2 C 96 % 15 lf 1005,9 hPa 0,0 l/m 0 min 0 min 11 W/m 18,8 km/h (3 Bft) 97,87 %
17.09.2015 19:22 13,6 C 13,3 C 12,2 C 96 % 15 lf 1005,9 hPa 0,0 l/m 0 min 0 min 11 W/m 18,8 km/h (3 Bft) 97,87 %
17.09.2015 19:24 13,6 C 13,3 C 12,2 C 96 % 15 lf 1005,9 hPa 0,0 l/m 0 min 0 min 9 W/m 16,7 km/h (3 Bft) 93,62 %
17.09.2015 19:26 13,6 C 13,3 C 12,2 C 96 % 15 lf 1006,0 hPa 0,0 l/m 0 min 0 min 10 W/m 16,7 km/h (3 Bft) 95,65 %
17.09.2015 19:28 13,6 C 13,3 C 12,2 C 96 % 15 lf 1006,0 hPa 0,0 l/m 0 min 0 min 11 W/m 18,8 km/h (3 Bft) 95,74 %
17.09.2015 19:30 13,6 C 13,3 C 12,2 C 96 % 15 lf 1006,1 hPa 0,0 l/m 0 min 0 min 12 W/m 12,6 km/h (3 Bft) 93,62 %
17.09.2015 19:32 13,6 C 13,3 C 12,2 C 96 % 15 lf 1006,1 hPa 0,0 l/m 0 min 0 min 15 W/m 14,6 km/h (3 Bft) 97,87 %
17.09.2015 19:34 13,6 C 13,3 C 12,2 C 96 % 15 lf 1006,2 hPa 0,0 l/m 0 min 0 min 18 W/m 16,7 km/h (3 Bft) 100,00 %
17.09.2015 19:36 13,6 C 13,3 C 12,2 C 96 % 15 lf 1006,2 hPa 0,0 l/m 0 min 0 min 15 W/m 25,1 km/h (4 Bft) 100,00 %
17.09.2015 19:38 13,6 C 12,8 C 12,2 C 96 % 15 lf 1006,3 hPa 0,0 l/m 0 min 0 min 13 W/m 16,7 km/h (3 Bft) 95,65 %
17.09.2015 19:40 13,6 C 12,8 C 12,2 C 96 % 15 lf 1006,4 hPa 0,0 l/m 0 min 0 min 11 W/m 18,8 km/h (3 Bft) 97,87 %
17.09.2015 19:42 13,5 C 12,8 C 11,7 C 96 % 15 lf 1006,4 hPa 0,0 l/m 0 min 0 min 9 W/m 23,0 km/h (4 Bft) 95,74 %
17.09.2015 19:44 13,5 C 12,8 C 11,7 C 96 % 15 lf 1006,5 hPa 0,0 l/m 0 min 0 min 7 W/m 20,9 km/h (4 Bft) 95,74 %
17.09.2015 19:46 13,4 C 12,8 C 11,7 C 96 % 15 lf 1006,5 hPa 0,0 l/m 0 min 0 min 7 W/m 23,0 km/h (4 Bft) 95,74 %
17.09.2015 19:48 13,4 C 12,8 C 11,7 C 96 % 15 lf 1006,5 hPa 0,0 l/m 0 min 0 min 5 W/m 20,9 km/h (4 Bft) 95,74 %
17.09.2015 19:50 13,4 C 12,8 C 11,7 C 96 % 15 lf 1006,5 hPa 0,0 l/m 0 min 0 min 5 W/m 16,7 km/h (3 Bft) 97,92 %
17.09.2015 19:52 13,4 C 12,8 C 11,7 C 96 % 15 lf 1006,5 hPa 0,0 l/m 0 min 0 min 4 W/m 18,8 km/h (3 Bft) 97,87 %
17.09.2015 19:54 13,4 C 12,8 C 11,7 C 96 % 15 lf 1006,6 hPa 0,0 l/m 0 min 0 min 0 W/m 16,7 km/h (3 Bft) 97,87 %
17.09.2015 19:56 13,4 C 12,8 C 11,7 C 96 % 15 lf 1006,6 hPa 0,0 l/m 0 min 0 min 0 W/m 16,7 km/h (3 Bft) 97,87 %
17.09.2015 19:58 13,3 C 12,8 C 11,7 C 96 % 15 lf 1006,6 hPa 0,0 l/m 0 min 0 min 0 W/m 16,7 km/h (3 Bft) 95,92 %
17.09.2015 20:00 13,3 C 12,8 C 11,7 C 96 % 15 lf 1006,6 hPa 0,0 l/m 0 min 0 min 0 W/m 16,7 km/h (3 Bft) 97,83 %
17.09.2015 20:02 13,3 C 12,8 C 11,7 C 96 % 15 lf 1006,7 hPa 0,0 l/m 0 min 0 min 0 W/m 14,6 km/h (3 Bft) 95,83 %
17.09.2015 20:04 13,3 C 12,8 C 11,7 C 96 % 15 lf 1006,7 hPa 0,0 l/m 0 min 0 min 0 W/m 16,7 km/h (3 Bft) 95,74 %
17.09.2015 20:06 13,3 C 12,8 C 11,7 C 96 % 15 lf 1006,7 hPa 0,0 l/m 0 min 0 min 0 W/m 16,7 km/h (3 Bft) 97,14 %
17.09.2015 20:08 13,3 C 12,8 C 11,7 C 96 % 15 lf 1006,8 hPa 0,0 l/m 0 min 0 min 0 W/m 14,6 km/h (3 Bft) 94,83 %
17.09.2015 20:10 13,2 C 12,8 C 11,7 C 96 % 15 lf 1006,9 hPa 0,0 l/m 0 min 0 min 0 W/m 14,6 km/h (3 Bft) 97,62 %
17.09.2015 20:12 13,2 C 12,8 C 11,7 C 96 % 15 lf 1006,9 hPa 0,0 l/m 0 min 0 min 0 W/m 14,6 km/h (3 Bft) 97,83 %
17.09.2015 20:14 13,2 C 12,8 C 11,7 C 96 % 15 lf 1006,9 hPa 0,0 l/m 0 min 0 min 0 W/m 16,7 km/h (3 Bft) 95,74 %
17.09.2015 20:16 13,2 C 12,8 C 11,7 C 96 % 15 lf 1007,1 hPa 0,0 l/m 0 min 0 min 0 W/m 16,7 km/h (3 Bft) 95,74 %
17.09.2015 20:18 13,2 C 12,8 C 11,7 C 96 % 15 lf 1007,1 hPa 0,0 l/m 0 min 0 min 0 W/m 16,7 km/h (3 Bft) 97,87 %
17.09.2015 20:20 13,2 C 12,8 C 11,7 C 96 % 15 lf 1007,2 hPa 0,0 l/m 0 min 0 min 0 W/m 16,7 km/h (3 Bft) 95,74 %
17.09.2015 20:22 13,2 C 12,8 C 11,7 C 96 % 15 lf 1007,2 hPa 0,0 l/m 0 min 0 min 0 W/m 23,0 km/h (4 Bft) 97,87 %
17.09.2015 20:24 13,2 C 12,8 C 11,7 C 96 % 15 lf 1007,2 hPa 0,0 l/m 0 min 0 min 0 W/m 16,7 km/h (3 Bft) 97,83 %
17.09.2015 20:26 13,2 C 12,8 C 11,7 C 96 % 15 lf 1007,2 hPa 0,0 l/m 0 min 0 min 0 W/m 16,7 km/h (3 Bft) 95,74 %
17.09.2015 20:28 13,2 C 12,8 C 11,7 C 96 % 15 lf 1007,3 hPa 0,0 l/m 0 min 0 min 0 W/m 10,5 km/h (2 Bft) 100,00 %
17.09.2015 20:30 13,2 C 12,8 C 11,7 C 96 % 15 lf 1007,3 hPa 0,0 l/m 0 min 0 min 0 W/m 14,6 km/h (3 Bft) 100,00 %
17.09.2015 20:32 13,2 C 12,8 C 11,7 C 96 % 15 lf 1007,3 hPa 0,0 l/m 0 min 0 min 0 W/m 12,6 km/h (3 Bft) 100,00 %
17.09.2015 20:34 13,2 C 12,8 C 11,7 C 96 % 15 lf 1007,4 hPa 0,0 l/m 0 min 0 min 0 W/m 12,6 km/h (3 Bft) 100,00 %
17.09.2015 20:36 13,2 C 12,8 C 11,7 C 96 % 15 lf 1007,3 hPa 0,0 l/m 0 min 0 min 0 W/m 18,8 km/h (3 Bft) 100,00 %
17.09.2015 20:38 13,2 C 12,8 C 11,7 C 96 % 15 lf 1007,4 hPa 0,0 l/m 0 min 0 min 0 W/m 14,6 km/h (3 Bft) 95,74 %
17.09.2015 20:40 13,2 C 12,8 C 11,7 C 96 % 15 lf 1007,4 hPa 0,0 l/m 0 min 0 min 0 W/m 16,7 km/h (3 Bft) 97,87 %
17.09.2015 20:42 13,2 C 12,8 C 11,7 C 96 % 15 lf 1007,3 hPa 0,0 l/m 0 min 0 min 0 W/m 16,7 km/h (3 Bft) 97,87 %
17.09.2015 20:44 13,2 C 12,8 C 11,7 C 96 % 15 lf 1007,4 hPa 0,0 l/m 0 min 0 min 0 W/m 18,8 km/h (3 Bft) 100,00 %
17.09.2015 20:46 13,2 C 12,8 C 11,7 C 96 % 15 lf 1007,5 hPa 0,0 l/m 0 min 0 min 0 W/m 14,6 km/h (3 Bft) 97,87 %
17.09.2015 20:48 13,1 C 12,8 C 11,7 C 96 % 15 lf 1007,5 hPa 0,0 l/m 0 min 0 min 0 W/m 16,7 km/h (3 Bft) 97,83 %
17.09.2015 20:50 13,1 C 12,8 C 11,7 C 96 % 15 lf 1007,6 hPa 0,0 l/m 0 min 0 min 0 W/m 14,6 km/h (3 Bft) 97,87 %
17.09.2015 20:52 13,1 C 12,8 C 11,1 C 96 % 15 lf 1007,6 hPa 0,0 l/m 0 min 0 min 0 W/m 14,6 km/h (3 Bft) 93,62 %
17.09.2015 20:54 13,1 C 12,2 C 11,1 C 96 % 15 lf 1007,7 hPa 0,0 l/m 0 min 0 min 0 W/m 12,6 km/h (3 Bft) 100,00 %
17.09.2015 20:56 13,1 C 12,2 C 11,1 C 96 % 15 lf 1007,7 hPa 0,0 l/m 0 min 0 min 0 W/m 10,5 km/h (2 Bft) 100,00 %
17.09.2015 20:58 13,0 C 12,2 C 11,1 C 96 % 15 lf 1007,7 hPa 0,0 l/m 0 min 0 min 0 W/m 12,6 km/h (3 Bft) 95,74 %
17.09.2015 21:00 13,0 C 12,2 C 11,1 C 96 % 15 lf 1007,8 hPa 0,0 l/m 0 min 0 min 0 W/m 14,6 km/h (3 Bft) 97,83 %
17.09.2015 21:02 12,9 C 12,2 C 11,1 C 96 % 15 lf 1007,7 hPa 0,0 l/m 0 min 0 min 0 W/m 12,6 km/h (3 Bft) 97,87 %
17.09.2015 21:04 12,9 C 12,2 C 11,1 C 96 % 15 lf 1007,8 hPa 0,0 l/m 0 min 0 min 0 W/m 14,6 km/h (3 Bft) 97,87 %
17.09.2015 21:06 12,9 C 12,2 C 11,1 C 96 % 15 lf 1007,8 hPa 0,0 l/m 0 min 0 min 0 W/m 14,6 km/h (3 Bft) 97,87 %
17.09.2015 21:08 12,9 C 12,2 C 11,1 C 96 % 15 lf 1007,8 hPa 0,0 l/m 0 min 0 min 0 W/m 14,6 km/h (3 Bft) 95,74 %
17.09.2015 21:10 12,8 C 12,2 C 11,1 C 96 % 15 lf 1007,8 hPa 0,0 l/m 0 min 0 min 0 W/m 10,5 km/h (2 Bft) 93,48 %
17.09.2015 21:12 12,8 C 12,2 C 11,1 C 96 % 15 lf 1007,9 hPa 0,0 l/m 0 min 0 min 0 W/m 12,6 km/h (3 Bft) 93,62 %
17.09.2015 21:14 12,8 C 12,2 C 11,1 C 96 % 15 lf 1008,0 hPa 0,0 l/m 0 min 0 min 0 W/m 10,5 km/h (2 Bft) 95,74 %
17.09.2015 21:16 12,8 C 12,2 C 11,1 C 96 % 15 lf 1007,9 hPa 0,0 l/m 0 min 0 min 0 W/m 12,6 km/h (3 Bft) 95,74 %
17.09.2015 21:18 12,7 C 12,2 C 11,1 C 96 % 15 lf 1008,0 hPa 0,0 l/m 0 min 0 min 0 W/m 12,6 km/h (3 Bft) 95,74 %
17.09.2015 21:20 12,7 C 12,2 C 11,1 C 96 % 15 lf 1008,0 hPa 0,0 l/m 0 min 0 min 0 W/m 10,5 km/h (2 Bft) 91,49 %
17.09.2015 21:22 12,7 C 12,2 C 11,1 C 96 % 15 lf 1008,1 hPa 0,0 l/m 0 min 0 min 0 W/m 12,6 km/h (3 Bft) 95,74 %
17.09.2015 21:24 12,7 C 12,2 C 11,1 C 96 % 15 lf 1008,1 hPa 0,0 l/m 0 min 0 min 0 W/m 12,6 km/h (3 Bft) 97,83 %
17.09.2015 21:26 12,6 C 12,2 C 11,1 C 96 % 15 lf 1008,1 hPa 0,0 l/m 0 min 0 min 0 W/m 14,6 km/h (3 Bft) 95,74 %
17.09.2015 21:28 12,6 C 12,2 C 10,6 C 96 % 15 lf 1008,2 hPa 0,0 l/m 0 min 0 min 0 W/m 16,7 km/h (3 Bft) 93,62 %
17.09.2015 21:30 12,6 C 12,2 C 11,1 C 96 % 15 lf 1008,2 hPa 0,0 l/m 0 min 0 min 0 W/m 14,6 km/h (3 Bft) 97,87 %
17.09.2015 21:32 12,6 C 12,2 C 11,1 C 96 % 15 lf 1008,2 hPa 0,0 l/m 0 min 0 min 0 W/m 16,7 km/h (3 Bft) 97,87 %
17.09.2015 21:34 12,6 C 12,2 C 11,1 C 96 % 15 lf 1008,2 hPa 0,0 l/m 0 min 0 min 0 W/m 10,5 km/h (2 Bft) 97,87 %
17.09.2015 21:36 12,5 C 12,2 C 11,1 C 96 % 15 lf 1008,3 hPa 0,0 l/m 0 min 0 min 0 W/m 10,5 km/h (2 Bft) 93,48 %
17.09.2015 21:38 12,5 C 12,2 C 11,1 C 96 % 15 lf 1008,3 hPa 0,0 l/m 0 min 0 min 0 W/m 12,6 km/h (3 Bft) 95,74 %
17.09.2015 21:40 12,5 C 12,2 C 11,1 C 96 % 15 lf 1008,3 hPa 0,0 l/m 0 min 0 min 0 W/m 10,5 km/h (2 Bft) 93,62 %
17.09.2015 21:42 12,5 C 12,2 C 11,1 C 96 % 15 lf 1008,3 hPa 0,0 l/m 0 min 0 min 0 W/m 10,5 km/h (2 Bft) 95,74 %
17.09.2015 21:44 12,5 C 12,2 C 11,1 C 96 % 15 lf 1008,3 hPa 0,0 l/m 0 min 0 min 0 W/m 10,5 km/h (2 Bft) 91,49 %
17.09.2015 21:46 12,5 C 12,2 C 11,1 C 96 % 15 lf 1008,3 hPa 0,0 l/m 0 min 0 min 0 W/m 8,4 km/h (2 Bft) 95,74 %
17.09.2015 21:48 12,5 C 12,2 C 11,1 C 96 % 15 lf 1008,3 hPa 0,0 l/m 0 min 0 min 0 W/m 12,6 km/h (3 Bft) 95,65 %
17.09.2015 21:50 12,5 C 12,2 C 11,1 C 96 % 15 lf 1008,3 hPa 0,0 l/m 0 min 0 min 0 W/m 8,4 km/h (2 Bft) 95,74 %
17.09.2015 21:52 12,5 C 12,2 C 11,1 C 96 % 15 lf 1008,3 hPa 0,0 l/m 0 min 0 min 0 W/m 8,4 km/h (2 Bft) 95,74 %
17.09.2015 21:54 12,5 C 12,2 C 11,1 C 96 % 15 lf 1008,3 hPa 0,0 l/m 0 min 0 min 0 W/m 8,4 km/h (2 Bft) 93,62 %
17.09.2015 21:56 12,4 C 12,2 C 10,6 C 96 % 15 lf 1008,3 hPa 0,0 l/m 0 min 0 min 0 W/m 8,4 km/h (2 Bft) 93,62 %
17.09.2015 21:58 12,4 C 12,2 C 10,6 C 96 % 15 lf 1008,3 hPa 0,0 l/m 0 min 0 min 0 W/m 6,3 km/h (2 Bft) 91,30 %
17.09.2015 22:00 12,4 C 12,2 C 10,6 C 96 % 15 lf 1008,3 hPa 0,0 l/m 0 min 0 min 0 W/m 8,4 km/h (2 Bft) 93,62 %
17.09.2015 22:02 12,4 C 12,2 C 10,6 C 96 % 15 lf 1008,4 hPa 0,0 l/m 0 min 0 min 0 W/m 6,3 km/h (2 Bft) 93,62 %
17.09.2015 22:04 12,4 C 12,2 C 10,6 C 96 % 15 lf 1008,4 hPa 0,0 l/m 0 min 0 min 0 W/m 8,4 km/h (2 Bft) 97,87 %
17.09.2015 22:06 12,4 C 11,7 C 10,6 C 96 % 15 lf 1008,4 hPa 0,0 l/m 0 min 0 min 0 W/m 8,4 km/h (2 Bft) 95,74 %
17.09.2015 22:08 12,4 C 12,2 C 10,6 C 96 % 15 lf 1008,4 hPa 0,0 l/m 0 min 0 min 0 W/m 10,5 km/h (2 Bft) 95,74 %
17.09.2015 22:10 12,4 C 12,2 C 10,6 C 96 % 15 lf 1008,4 hPa 0,0 l/m 0 min 0 min 0 W/m 8,4 km/h (2 Bft) 97,83 %
17.09.2015 22:12 12,4 C 11,7 C 10,6 C 96 % 15 lf 1008,4 hPa 0,0 l/m 0 min 0 min 0 W/m 6,3 km/h (2 Bft) 97,87 %
17.09.2015 22:14 12,3 C 11,7 C 10,6 C 96 % 15 lf 1008,4 hPa 0,0 l/m 0 min 0 min 0 W/m 6,3 km/h (2 Bft) 95,74 %
17.09.2015 22:16 12,3 C 11,7 C 10,6 C 96 % 15 lf 1008,4 hPa 0,0 l/m 0 min 0 min 0 W/m 12,6 km/h (3 Bft) 95,74 %
17.09.2015 22:18 12,3 C 11,7 C 10,6 C 96 % 15 lf 1008,4 hPa 0,0 l/m 0 min 0 min 0 W/m 10,5 km/h (2 Bft) 93,62 %
17.09.2015 22:20 12,3 C 11,7 C 10,6 C 96 % 15 lf 1008,5 hPa 0,0 l/m 0 min 0 min 0 W/m 6,3 km/h (2 Bft) 97,87 %
17.09.2015 22:22 12,3 C 11,7 C 10,6 C 96 % 15 lf 1008,5 hPa 0,0 l/m 0 min 0 min 0 W/m 6,3 km/h (2 Bft) 97,83 %
17.09.2015 22:24 12,3 C 11,7 C 10,6 C 96 % 15 lf 1008,4 hPa 0,0 l/m 0 min 0 min 0 W/m 8,4 km/h (2 Bft) 95,74 %
17.09.2015 22:26 12,2 C 11,7 C 10,6 C 96 % 15 lf 1008,4 hPa 0,0 l/m 0 min 0 min 0 W/m 8,4 km/h (2 Bft) 93,62 %
17.09.2015 22:28 12,2 C 11,7 C 10,6 C 96 % 15 lf 1008,5 hPa 0,0 l/m 0 min 0 min 0 W/m 8,4 km/h (2 Bft) 95,74 %
17.09.2015 22:30 12,2 C 11,7 C 10,6 C 96 % 15 lf 1008,5 hPa 0,0 l/m 0 min 0 min 0 W/m 10,5 km/h (2 Bft) 95,74 %
17.09.2015 22:32 12,2 C 11,7 C 10,6 C 96 % 15 lf 1008,5 hPa 0,0 l/m 0 min 0 min 0 W/m 6,3 km/h (2 Bft) 95,74 %
17.09.2015 22:34 12,2 C 11,7 C 10,6 C 96 % 15 lf 1008,6 hPa 0,0 l/m 0 min 0 min 0 W/m 8,4 km/h (2 Bft) 93,48 %
17.09.2015 22:36 12,2 C 11,7 C 10,6 C 96 % 15 lf 1008,6 hPa 0,0 l/m 0 min 0 min 0 W/m 10,5 km/h (2 Bft) 95,74 %
17.09.2015 22:38 12,2 C 11,7 C 10,6 C 96 % 15 lf 1008,7 hPa 0,0 l/m 0 min 0 min 0 W/m 10,5 km/h (2 Bft) 95,74 %
17.09.2015 22:40 12,1 C 11,7 C 10,6 C 96 % 15 lf 1008,7 hPa 0,0 l/m 0 min 0 min 0 W/m 8,4 km/h (2 Bft) 95,74 %
17.09.2015 22:42 12,1 C 11,7 C 10,6 C 96 % 15 lf 1008,8 hPa 0,0 l/m 0 min 0 min 0 W/m 8,4 km/h (2 Bft) 95,74 %
17.09.2015 22:44 12,1 C 11,7 C 10,6 C 96 % 15 lf 1008,8 hPa 0,0 l/m 0 min 0 min 0 W/m 8,4 km/h (2 Bft) 93,62 %
17.09.2015 22:46 12,1 C 11,7 C 10,6 C 96 % 15 lf 1008,8 hPa 0,0 l/m 0 min 0 min 0 W/m 10,5 km/h (2 Bft) 93,48 %
17.09.2015 22:48 12,1 C 11,7 C 10,6 C 96 % 15 lf 1008,8 hPa 0,0 l/m 0 min 0 min 0 W/m 8,4 km/h (2 Bft) 95,74 %
17.09.2015 22:50 12,1 C 11,7 C 10,6 C 96 % 15 lf 1008,8 hPa 0,0 l/m 0 min 0 min 0 W/m 6,3 km/h (2 Bft) 95,74 %
17.09.2015 22:52 12,1 C 11,7 C 10,0 C 96 % 15 lf 1008,9 hPa 0,0 l/m 0 min 0 min 0 W/m 10,5 km/h (2 Bft) 93,62 %
17.09.2015 22:54 12,1 C 11,7 C 10,6 C 96 % 15 lf 1008,8 hPa 0,0 l/m 0 min 0 min 0 W/m 10,5 km/h (2 Bft) 93,62 %
17.09.2015 22:56 12,1 C 11,7 C 10,6 C 96 % 15 lf 1008,9 hPa 0,0 l/m 0 min 0 min 0 W/m 8,4 km/h (2 Bft) 89,36 %
17.09.2015 22:58 12,0 C 11,7 C 10,6 C 96 % 15 lf 1008,9 hPa 0,0 l/m 0 min 0 min 0 W/m 6,3 km/h (2 Bft) 95,65 %
17.09.2015 23:00 12,1 C 11,7 C 10,6 C 96 % 15 lf 1009,0 hPa 0,0 l/m 0 min 0 min 0 W/m 6,3 km/h (2 Bft) 95,74 %
17.09.2015 23:02 12,0 C 11,7 C 10,6 C 96 % 15 lf 1009,0 hPa 0,0 l/m 0 min 0 min 0 W/m 12,6 km/h (3 Bft) 93,62 %
17.09.2015 23:04 12,0 C 11,7 C 10,6 C 96 % 15 lf 1009,1 hPa 0,0 l/m 0 min 0 min 0 W/m 10,5 km/h (2 Bft) 93,62 %
17.09.2015 23:06 12,0 C 11,7 C 10,6 C 96 % 15 lf 1009,0 hPa 0,0 l/m 0 min 0 min 0 W/m 10,5 km/h (2 Bft) 95,74 %
17.09.2015 23:08 12,0 C 11,7 C 10,6 C 96 % 15 lf 1009,0 hPa 0,0 l/m 0 min 0 min 0 W/m 14,6 km/h (3 Bft) 93,48 %
17.09.2015 23:10 12,0 C 11,7 C 10,6 C 96 % 15 lf 1009,0 hPa 0,0 l/m 0 min 0 min 0 W/m 10,5 km/h (2 Bft) 95,74 %
17.09.2015 23:12 11,9 C 11,7 C 10,0 C 96 % 15 lf 1009,0 hPa 0,0 l/m 0 min 0 min 0 W/m 10,5 km/h (2 Bft) 95,74 %
17.09.2015 23:14 11,9 C 11,7 C 10,6 C 96 % 15 lf 1009,0 hPa 0,0 l/m 0 min 0 min 0 W/m 6,3 km/h (2 Bft) 97,87 %
17.09.2015 23:16 11,9 C 11,7 C 10,0 C 96 % 15 lf 1009,1 hPa 0,0 l/m 0 min 0 min 0 W/m 6,3 km/h (2 Bft) 100,00 %
17.09.2015 23:18 11,9 C 11,7 C 10,0 C 96 % 15 lf 1009,1 hPa 0,0 l/m 0 min 0 min 0 W/m 8,4 km/h (2 Bft) 97,87 %
17.09.2015 23:20 11,9 C 11,7 C 10,0 C 96 % 15 lf 1009,1 hPa 0,0 l/m 0 min 0 min 0 W/m 8,4 km/h (2 Bft) 100,00 %
17.09.2015 23:22 11,9 C 11,7 C 10,6 C 96 % 15 lf 1009,2 hPa 0,0 l/m 0 min 0 min 0 W/m 10,5 km/h (2 Bft) 100,00 %
17.09.2015 23:24 11,9 C 11,7 C 10,0 C 96 % 15 lf 1009,2 hPa 0,0 l/m 0 min 0 min 0 W/m 8,4 km/h (2 Bft) 97,87 %
17.09.2015 23:26 11,9 C 11,7 C 10,0 C 96 % 15 lf 1009,2 hPa 0,0 l/m 0 min 0 min 0 W/m 8,4 km/h (2 Bft) 97,87 %
17.09.2015 23:28 11,9 C 11,7 C 10,0 C 96 % 15 lf 1009,2 hPa 0,0 l/m 0 min 0 min 0 W/m 6,3 km/h (2 Bft) 93,62 %
17.09.2015 23:30 11,9 C 11,7 C 10,0 C 96 % 15 lf 1009,2 hPa 0,0 l/m 0 min 0 min 0 W/m 6,3 km/h (2 Bft) 100,00 %
17.09.2015 23:32 11,8 C 11,7 C 10,0 C 96 % 15 lf 1009,2 hPa 0,0 l/m 0 min 0 min 0 W/m 6,3 km/h (2 Bft) 95,65 %
17.09.2015 23:34 11,8 C 11,7 C 10,0 C 96 % 15 lf 1009,2 hPa 0,0 l/m 0 min 0 min 0 W/m 8,4 km/h (2 Bft) 100,00 %
17.09.2015 23:36 11,8 C 11,7 C 10,0 C 96 % 15 lf 1009,2 hPa 0,0 l/m 0 min 0 min 0 W/m 6,3 km/h (2 Bft) 100,00 %
17.09.2015 23:38 11,8 C 11,1 C 10,0 C 96 % 15 lf 1009,3 hPa 0,0 l/m 0 min 0 min 0 W/m 8,4 km/h (2 Bft) 100,00 %
17.09.2015 23:40 11,8 C 11,1 C 10,0 C 96 % 15 lf 1009,3 hPa 0,0 l/m 0 min 0 min 0 W/m 6,3 km/h (2 Bft) 100,00 %
17.09.2015 23:42 11,8 C 11,1 C 10,0 C 96 % 15 lf 1009,3 hPa 0,0 l/m 0 min 0 min 0 W/m 8,4 km/h (2 Bft) 95,65 %
17.09.2015 23:44 11,7 C 11,1 C 10,0 C 96 % 15 lf 1009,3 hPa 0,0 l/m 0 min 0 min 0 W/m 6,3 km/h (2 Bft) 93,62 %
17.09.2015 23:46 11,7 C 11,1 C 10,0 C 96 % 15 lf 1009,3 hPa 0,0 l/m 0 min 0 min 0 W/m 6,3 km/h (2 Bft) 95,74 %
17.09.2015 23:48 11,7 C 11,1 C 10,0 C 96 % 15 lf 1009,4 hPa 0,0 l/m 0 min 0 min 0 W/m 10,5 km/h (2 Bft) 97,87 %
17.09.2015 23:50 11,7 C 11,1 C 10,0 C 96 % 15 lf 1009,4 hPa 0,0 l/m 0 min 0 min 0 W/m 8,4 km/h (2 Bft) 95,74 %
17.09.2015 23:52 11,7 C 11,1 C 10,0 C 96 % 15 lf 1009,5 hPa 0,0 l/m 0 min 0 min 0 W/m 10,5 km/h (2 Bft) 95,74 %
17.09.2015 23:54 11,7 C 11,7 C 10,0 C 96 % 15 lf 1009,5 hPa 0,0 l/m 0 min 0 min 0 W/m 10,5 km/h (2 Bft) 100,00 %
17.09.2015 23:56 11,6 C 11,7 C 10,0 C 96 % 15 lf 1009,5 hPa 0,0 l/m 0 min 0 min 0 W/m 10,5 km/h (2 Bft) 100,00 %
17.09.2015 23:58 11,6 C 11,1 C 10,0 C 96 % 15 lf 1009,5 hPa 0,0 l/m 0 min 0 min 0 W/m 8,4 km/h (2 Bft) 100,00 %
_ Min-Zeit 23:56 23:38 22:52 12:48 00:00 00:12 - - - - 21:58 07:34
Minimum _ 11,6 C 11,1 C 10,0 C 79 % 0 lf 992,2 hPa - - - - 6,3 km/h (2 Bft) 86,96 %
_ Max-Zeit 12:06 11:10 11:54 18:14 09:58 23:52 16:42 14:56 09:58 15:00 02:00 00:20
Maximum _ 17,3 C 18,3 C 16,7 C 96 % 15 lf 1009,5 hPa 0,8 l/m 2 min 2 min 454 W/m 50,2 km/h
S (7 Bft)
100,00 %
Durchschnitt _ 15,3 C 15,3 C 13,6 C 88 % 5 lf 998,9 hPa #5,8 l/m #10 min. #2:12 h 85 W/m 21,8 km/h (4 Bft) 96,40 %
© 2015 W. Hausmann